GFSFLT1_sfc_dewp_000.txt.gz
Dewpoint
49 51 52 55 57 58 57 56 55 53 52 53 53 50 49 50 47 42 41 41 43 43 42 41 40 39 39 39 38 39 39 40
46 49 50 50 53 53 53 53 53 51 48 49 49 48 50 45 42 41 40 39 39 40 40 40 40 39 39 40 39 39 38 42
42 43 45 47 49 50 48 48 47 46 47 48 50 49 45 42 39 38 39 39 38 39 41 41 40 39 39 40 40 39 39 41
40 39 39 42 41 41 40 41 41 43 47 46 42 41 41 38 39 35 37 38 38 39 40 40 39 39 40 40 39 39 39 39
37 36 35 34 35 35 37 38 38 38 39 39 38 38 37 39 37 34 36 38 37 38 39 39 39 39 40 40 38 37 38 34
38 37 38 38 37 37 37 37 37 37 38 40 39 36 38 37 35 34 34 37 37 37 38 38 39 38 37 37 35 33 35 33
39 40 39 38 38 37 37 38 38 38 37 37 36 36 35 33 35 35 36 36 37 38 37 37 37 36 35 34 33 33 33 33
40 39 38 37 36 36 36 35 34 35 35 35 34 33 31 34 35 36 36 37 37 37 37 37 36 35 35 33 31 31 30 29
39 39 37 37 36 33 32 32 32 33 35 34 35 35 37 37 38 37 37 37 36 37 36 34 33 35 34 35 32 31 30 29
37 37 36 36 37 35 32 32 31 32 33 35 34 34 33 34 35 36 37 37 37 37 34 36 36 36 33 33 31 30 30 30
36 35 35 35 36 37 35 29 25 25 26 30 28 29 30 32 33 33 35 36 36 36 36 35 34 32 31 31 30 29 30 30
34 33 32 30 29 28 26 23 22 23 25 27 28 29 30 31 32 33 34 34 34 34 33 34 31 31 31 28 26 27 29 28
32 31 28 23 22 22 22 21 21 22 24 26 28 29 30 30 31 31 32 31 31 32 33 33 33 30 28 25 26 27 24 22
32 29 23 22 23 23 23 23 20 21 21 23 28 30 31 30 28 29 30 30 30 32 33 31 28 26 25 25 26 24 21 21
30 27 22 21 22 24 23 22 23 23 22 25 28 30 31 31 31 30 31 33 34 32 30 29 26 24 24 25 22 21 21 21
29 25 20 21 22 22 21 22 24 24 23 24 28 31 32 32 32 33 33 33 34 31 31 24 22 23 23 22 20 21 21 21
28 23 17 19 20 20 19 21 22 24 24 25 30 31 32 32 33 33 33 35 32 26 19 21 23 21 28 28 29 27 24 21
26 21 15 15 18 19 19 19 22 23 25 26 30 31 32 32 32 32 32 31 29 26 22 23 23 27 30 30 29 24 23 22
25 22 12 11 17 18 20 19 20 22 24 26 30 31 31 31 31 31 31 31 30 20 23 24 26 24 26 27 24 21 20 19

GFSFLT1_sfc_dewp_003.txt.gz
Dewpoint
53 56 59 60 59 59 57 57 55 54 54 50 51 49 47 46 41 40 41 41 44 44 44 45 42 41 40 39 38 37 39 39
52 56 59 59 58 57 56 54 52 51 49 50 50 50 47 40 39 41 41 42 42 44 41 42 42 40 42 41 37 35 34 40
50 54 58 59 58 57 55 52 48 46 48 50 51 50 44 39 39 41 40 41 40 39 42 41 43 41 43 42 38 34 36 41
49 52 55 55 53 52 51 48 46 46 47 45 43 43 43 40 38 37 38 40 38 40 43 43 43 43 42 42 40 37 33 37
42 44 45 46 43 43 43 42 41 41 43 42 43 39 38 40 38 38 39 41 41 39 41 43 44 43 42 41 38 37 35 30
36 36 37 37 40 42 42 41 40 40 41 41 39 39 39 39 39 41 42 41 41 40 41 42 43 41 42 40 38 34 30 27
39 40 40 39 40 42 42 39 37 38 39 39 40 39 37 37 39 39 39 40 40 41 41 42 42 41 40 37 35 32 28 27
41 40 39 40 41 40 37 36 35 37 38 37 37 37 38 36 36 35 37 35 35 39 42 42 40 38 37 36 34 32 29 24
41 40 38 37 37 37 36 35 33 33 33 31 29 27 24 24 28 29 30 32 34 40 41 40 37 36 36 37 33 30 32 29
40 39 38 36 35 37 35 27 23 24 26 26 28 28 29 29 31 32 31 37 37 41 39 38 38 37 35 34 32 32 31 32
39 38 39 39 38 33 29 23 21 24 26 28 28 29 30 31 32 32 33 37 39 39 37 36 37 36 34 33 31 31 31 32
36 36 38 39 32 26 24 23 23 24 25 28 30 30 32 32 32 32 34 36 37 37 36 35 35 33 32 32 31 30 30 31
34 32 30 27 24 23 24 24 23 23 25 27 29 31 32 31 32 32 34 34 34 34 35 34 34 33 31 29 29 28 28 27
31 24 22 22 23 25 24 24 21 21 21 23 27 30 31 31 32 33 34 34 34 35 35 34 30 30 26 27 28 27 26 24
30 22 20 22 24 24 24 25 25 23 21 23 27 31 32 32 33 34 35 36 36 35 34 33 32 25 25 26 25 24 23 23
29 24 19 21 23 25 23 23 24 25 24 23 27 32 33 32 33 34 35 36 36 35 32 24 25 25 22 25 23 24 25 25
29 25 18 19 22 23 22 22 23 25 25 26 27 32 32 32 33 34 35 35 35 30 29 26 25 23 30 31 28 23 20 18
28 25 20 18 21 23 21 20 22 23 24 25 27 30 31 32 32 31 33 34 34 33 27 26 26 27 27 27 25 18 16 16
29 26 22 17 18 20 21 19 20 21 22 24 27 29 30 31 31 30 33 33 32 31 26 25 25 22 23 22 22 20 17 15

GFSFLT1_sfc_dewp_006.txt.gz
Dewpoint
51 49 50 53 57 58 58 56 57 58 56 53 48 46 45 43 42 42 43 43 45 46 45 45 42 39 38 39 40 39 38 39
53 56 56 56 58 58 57 57 57 55 52 51 48 48 46 43 41 43 43 42 41 43 41 42 42 41 43 43 40 39 37 39
54 56 57 57 57 56 56 55 55 51 49 48 50 50 45 41 42 43 41 41 39 39 43 41 42 40 42 43 42 37 33 37
54 56 57 58 57 57 55 53 49 48 47 46 45 45 44 43 41 39 41 42 40 40 42 42 43 41 39 41 40 39 34 33
54 55 56 57 57 55 51 47 45 44 43 44 45 40 39 40 40 40 40 43 42 40 40 42 43 40 40 40 37 38 35 29
50 50 50 47 48 47 46 43 41 42 43 43 41 41 39 39 39 40 40 39 40 38 39 41 41 39 40 42 40 35 32 31
41 42 41 40 43 45 45 42 40 41 41 42 43 41 36 32 29 27 24 23 24 28 29 39 42 42 42 40 38 35 33 30
37 37 37 40 43 44 42 40 38 40 40 37 34 29 28 24 24 22 24 22 24 28 32 36 39 42 40 38 37 36 33 29
39 38 40 41 42 41 40 39 37 35 31 26 26 26 24 24 27 28 26 27 29 35 39 41 42 39 36 38 38 34 31 29
40 41 41 41 40 42 41 34 28 26 27 27 29 29 30 31 31 31 28 31 30 36 41 40 39 37 38 36 33 31 30 29
42 41 40 40 41 39 36 29 27 26 27 29 29 30 31 31 31 30 31 32 33 36 38 39 37 37 34 33 30 27 27 26
42 40 41 40 38 34 31 28 27 25 26 29 31 31 30 31 30 30 31 33 32 33 35 37 36 33 32 33 28 25 24 25
40 40 41 40 34 30 28 28 26 25 26 28 29 30 30 29 29 29 32 32 33 33 33 34 33 32 32 27 25 24 24 24
38 38 38 34 30 28 28 29 25 22 21 23 27 29 29 29 30 30 31 32 33 34 33 33 31 30 27 24 26 26 25 25
36 34 32 29 27 28 29 29 26 23 20 22 25 29 29 31 31 31 31 32 33 33 33 33 32 27 24 25 25 26 26 25
34 32 30 27 27 29 29 27 26 25 22 22 25 29 31 30 31 30 31 34 33 33 31 29 28 27 22 27 26 27 26 24
34 32 30 27 26 28 27 25 24 25 24 25 26 28 29 31 29 31 31 31 31 31 32 32 30 24 31 28 24 21 21 19
34 34 31 27 25 28 25 23 23 24 23 24 25 27 29 29 28 27 27 29 31 30 30 31 30 30 28 24 23 20 20 18
35 34 32 25 25 26 24 19 20 21 22 22 24 26 26 26 26 27 29 29 29 27 27 29 29 25 22 21 21 21 19 18

GFSFLT1_sfc_dewp_009.txt.gz
Dewpoint
47 46 46 50 55 56 57 57 57 59 55 54 50 48 47 45 44 44 45 44 46 46 44 46 45 41 42 43 45 43 42 39
50 48 50 52 56 56 57 56 57 55 52 50 48 48 46 44 44 45 45 44 42 44 43 44 44 42 44 44 43 43 39 37
49 51 52 54 56 57 56 55 55 51 49 47 49 48 45 42 44 45 43 44 42 42 44 43 43 42 43 43 43 40 36 34
51 53 54 56 56 56 55 54 51 48 49 47 45 45 45 42 41 40 42 44 42 42 43 42 43 41 38 42 39 40 35 33
52 53 54 56 56 56 52 50 48 47 43 44 46 42 40 42 41 41 40 40 39 35 35 37 40 39 39 38 36 39 37 32
51 53 54 53 54 53 50 47 43 43 44 45 43 42 40 39 36 33 31 29 27 24 26 32 37 37 39 40 40 39 35 34
50 50 51 50 50 49 48 43 42 43 44 45 45 40 33 30 28 25 24 24 25 28 28 33 34 35 39 39 40 38 39 36
44 45 42 43 45 46 44 42 41 43 43 38 34 32 30 28 27 26 28 25 26 30 34 36 35 37 39 39 40 40 39 35
40 40 39 41 44 44 42 41 41 39 34 31 31 28 27 27 29 28 26 27 28 31 34 37 37 38 39 38 39 40 39 34
37 37 39 41 43 43 43 41 37 32 32 33 32 31 33 31 30 30 27 29 26 30 34 36 39 38 39 41 36 35 32 31
38 38 41 42 43 42 44 38 31 32 33 33 31 31 32 32 31 29 29 30 30 31 32 33 35 36 37 34 32 32 31 29
39 40 42 42 42 42 39 33 32 33 31 31 33 31 31 31 30 29 29 31 30 29 30 32 31 31 31 31 32 32 27 27
39 42 41 41 42 39 35 33 33 31 30 31 31 32 30 29 29 28 30 30 30 30 31 30 29 29 29 28 28 26 26 26
39 41 41 40 40 37 34 33 31 29 26 27 28 29 30 29 29 30 29 29 30 31 30 30 29 31 30 29 26 26 28 28
40 40 41 41 39 35 32 33 31 27 22 23 25 29 30 30 30 30 29 28 30 30 30 29 30 27 24 24 24 26 27 28
40 40 40 40 37 33 31 33 31 26 23 22 26 29 30 29 30 30 29 30 29 29 29 31 32 29 24 28 28 28 26 25
39 39 38 37 34 32 32 32 29 27 26 26 26 28 27 28 29 30 29 28 27 27 27 28 32 28 31 28 24 24 22 21
37 37 36 35 33 32 32 28 27 26 25 25 25 26 25 28 27 25 25 27 28 27 26 26 30 30 29 24 22 21 23 23
36 37 36 35 34 31 31 26 25 25 23 23 24 24 24 24 24 24 25 28 27 26 25 26 27 27 26 22 21 23 24 22

GFSFLT1_sfc_dewp_012.txt.gz
Dewpoint
44 44 49 53 55 56 59 59 60 60 59 57 55 54 53 51 50 49 50 48 50 50 51 48 47 47 47 48 47 46 46 43
46 47 51 55 57 56 58 58 59 59 55 52 52 51 51 49 48 49 48 48 47 47 48 48 48 46 47 46 45 44 43 41
48 49 50 55 56 57 57 57 57 57 53 54 54 50 49 48 49 48 48 48 46 44 47 46 46 45 45 45 42 42 40 40
49 49 53 57 57 57 57 57 56 53 53 50 50 49 50 48 47 47 47 46 43 42 43 44 44 43 43 43 41 41 39 38
49 52 53 58 59 58 56 55 51 51 50 50 50 46 44 46 46 43 40 40 36 31 35 39 40 42 42 43 38 41 40 36
50 52 56 57 58 57 56 51 47 48 49 49 48 46 46 42 39 37 36 35 35 33 35 39 39 39 40 42 43 42 40 38
50 54 55 54 56 55 52 46 45 48 48 48 46 42 38 37 33 33 34 34 34 36 37 39 41 41 41 43 42 41 40 38
50 53 53 52 52 51 48 44 44 47 46 42 41 39 37 36 34 34 33 33 33 36 36 39 40 41 42 41 40 40 40 38
49 49 50 49 48 48 45 43 43 44 40 37 38 37 35 35 36 33 34 33 34 34 37 38 39 41 39 40 41 41 40 39
46 46 44 45 46 47 46 43 42 38 37 39 39 38 38 38 36 34 34 33 29 34 36 37 38 37 39 40 40 38 36 35
42 42 42 44 46 45 48 44 40 35 38 40 37 38 39 38 36 33 32 33 33 34 35 35 36 37 39 38 37 35 34 34
39 38 41 43 45 45 45 43 36 35 37 38 39 37 38 37 34 33 32 33 33 33 33 34 33 33 33 34 33 32 33 31
38 39 41 43 44 43 44 41 35 36 37 36 37 38 37 35 34 32 33 32 33 32 33 33 33 33 33 33 32 30 31 32
39 40 42 43 43 44 43 40 35 35 33 33 34 36 39 34 33 33 32 32 32 33 33 34 33 33 33 33 31 30 30 31
38 39 42 42 42 43 41 39 39 35 33 30 32 36 36 34 33 33 33 32 32 32 34 34 33 30 29 28 28 30 30 29
38 40 42 42 42 43 40 38 39 37 34 28 33 35 34 33 34 34 34 33 32 32 32 33 33 33 29 30 29 27 27 25
37 41 43 43 42 42 38 36 37 35 33 33 33 32 32 33 33 35 35 34 32 30 30 32 31 31 31 28 25 23 25 24
36 40 42 42 42 42 38 36 36 33 31 30 31 33 32 33 32 31 31 31 32 31 31 30 29 32 31 27 24 20 23 26
37 39 41 41 40 39 37 35 33 31 29 29 31 33 33 30 30 28 30 31 31 31 30 29 29 30 30 26 23 21 25 25

GFSFLT1_sfc_dewp_015.txt.gz
Dewpoint
46 51 52 54 54 57 59 57 56 57 58 55 53 50 50 49 47 47 46 46 45 47 48 47 46 45 45 44 43 44 44 40
44 50 52 55 57 58 58 58 56 58 54 52 51 49 46 46 46 45 46 46 46 44 44 43 44 43 43 43 43 39 39 39
43 48 53 54 56 57 57 57 57 58 52 50 50 46 45 45 46 46 45 44 43 43 43 43 42 42 41 41 39 38 39 37
46 48 54 54 55 56 56 56 55 55 51 48 46 46 46 46 45 45 43 37 30 31 36 36 36 39 40 40 39 39 36 36
48 50 53 55 57 56 57 55 50 50 47 45 43 44 42 43 41 35 31 32 31 31 35 36 36 37 35 39 40 40 37 35
49 51 56 56 58 59 56 48 46 47 46 45 44 43 38 35 33 31 29 32 32 33 35 35 37 39 39 41 40 39 38 36
51 54 56 57 58 54 47 44 45 46 46 43 39 34 32 30 30 31 30 32 33 35 33 37 37 39 41 40 39 39 38 36
53 54 53 54 52 48 43 44 45 43 38 35 34 32 30 28 30 31 30 30 31 31 33 35 37 40 39 39 39 39 38 37
53 53 53 51 47 43 42 44 44 40 36 34 32 32 33 32 32 31 32 31 31 30 33 34 35 38 39 39 39 38 38 37
53 52 50 47 45 44 43 43 42 37 35 35 33 33 34 34 32 32 32 32 28 31 32 32 34 36 38 38 38 37 37 33
49 47 46 46 45 45 43 42 38 35 36 36 34 35 35 34 33 31 31 32 30 31 31 32 32 32 34 37 36 35 32 35
44 43 44 44 45 45 44 42 35 35 37 35 36 35 36 34 33 32 31 31 31 30 32 32 32 32 32 31 31 28 32 32
40 40 42 43 44 44 43 40 34 36 36 36 36 36 35 34 34 32 32 30 31 30 31 32 33 33 32 32 32 31 31 32
39 38 41 43 43 43 43 39 34 36 34 35 37 37 36 34 33 32 32 31 30 31 31 32 33 32 31 32 32 30 30 30
38 37 40 43 43 43 43 39 36 35 34 34 37 38 36 35 33 32 32 31 30 30 32 34 35 31 30 30 30 29 28 27
38 39 42 42 43 43 42 43 38 37 33 31 34 37 36 33 33 32 32 33 30 31 32 33 34 33 31 29 27 26 25 25
34 42 43 42 44 44 43 41 39 34 31 32 34 35 34 34 33 33 33 34 32 32 31 32 32 32 32 32 27 23 23 23
35 39 43 43 44 44 41 38 37 33 33 33 34 33 33 34 34 33 32 33 32 31 31 31 30 32 32 30 26 20 21 23
35 36 39 42 43 42 39 36 34 32 31 31 33 34 34 34 34 32 30 30 30 30 31 31 31 30 32 30 26 20 22 25

GFSFLT1_sfc_dewp_018.txt.gz
Dewpoint
54 53 54 55 53 57 59 56 54 56 57 52 50 49 49 48 47 46 45 45 48 47 45 45 44 43 43 42 40 40 41 40
53 54 53 53 55 58 57 54 56 56 53 50 49 47 46 46 44 45 46 45 44 44 43 43 43 41 41 42 40 37 37 37
52 52 53 53 56 58 56 54 56 55 51 50 48 45 45 45 45 45 44 44 43 40 40 36 38 39 40 39 38 37 39 37
49 52 52 54 57 57 56 55 55 56 52 49 46 46 46 45 44 44 36 32 31 35 35 35 35 36 35 36 39 38 36 36
46 51 52 54 57 57 57 56 56 56 51 48 44 42 42 44 42 34 30 32 34 35 35 36 36 38 36 38 40 38 36 34
44 52 52 54 57 57 56 56 55 52 48 48 44 44 42 38 34 30 31 33 35 34 35 37 37 40 40 39 39 37 36 35
50 53 53 54 57 58 57 49 48 47 46 45 44 38 34 31 30 30 31 33 35 33 35 36 37 40 39 39 39 38 37 36
52 54 54 56 57 52 47 45 46 47 43 41 36 32 30 29 29 31 31 31 32 30 33 34 36 40 39 39 39 38 37 36
52 54 55 55 53 47 45 45 42 41 40 39 37 31 31 32 32 32 32 32 31 33 33 34 35 38 38 38 38 36 37 37
53 53 54 52 47 44 47 45 39 39 40 39 38 34 34 34 32 32 32 32 31 33 32 33 33 33 37 38 37 36 36 35
53 52 50 49 44 43 44 43 39 42 42 39 39 36 35 34 33 32 33 33 32 32 32 32 32 32 32 34 34 33 31 33
51 50 48 46 43 42 43 41 39 40 42 39 36 34 35 33 32 33 33 32 32 32 32 31 32 31 32 31 31 30 32 32
49 49 47 45 44 43 43 41 40 38 34 34 35 37 36 34 33 33 34 32 32 31 30 31 32 33 33 31 31 31 31 31
45 46 46 45 45 44 42 41 36 34 34 37 36 37 36 33 33 33 33 32 32 31 30 31 32 34 33 32 31 32 31 31
41 43 45 45 45 45 43 40 38 37 34 35 36 36 34 35 33 33 32 32 30 30 31 32 34 34 31 31 30 29 28 27
39 40 39 42 43 44 44 40 39 37 36 36 37 36 36 36 34 32 32 32 31 31 31 33 34 33 32 31 29 28 26 25
36 38 41 42 43 43 44 41 40 37 36 35 36 38 35 35 34 33 32 33 33 32 32 33 33 31 33 34 30 25 24 23
37 42 42 43 44 44 44 43 40 36 34 34 37 35 34 35 33 32 33 34 34 33 33 33 32 32 34 34 31 23 22 22
35 35 42 43 44 44 44 40 36 34 34 34 34 35 34 34 34 34 35 34 31 31 30 31 32 31 34 32 28 22 22 24

GFSFLT1_sfc_dewp_024.txt.gz
Dewpoint
55 56 58 59 59 57 58 58 57 56 56 54 53 51 50 50 49 49 49 48 46 46 46 44 43 42 41 39 37 39 39 37
55 56 58 58 57 56 57 56 55 55 53 51 51 49 49 47 46 46 48 47 45 44 43 42 41 40 41 39 38 36 37 36
55 56 56 57 56 57 57 55 55 55 53 48 48 47 45 45 45 45 46 44 43 42 39 39 39 37 36 39 38 38 36 35
54 56 55 56 55 56 56 55 55 54 51 46 45 46 44 44 43 43 41 39 36 34 35 35 35 35 34 37 38 37 35 34
53 55 54 55 55 56 57 55 55 54 49 46 44 45 43 43 43 36 32 35 35 35 36 37 37 38 39 39 39 38 36 33
51 54 54 54 55 55 57 55 55 54 50 47 47 46 45 43 37 31 34 35 35 36 37 38 39 40 39 38 37 36 36 34
49 53 54 54 54 55 57 55 55 55 52 50 47 48 44 40 36 34 34 34 36 36 37 39 39 39 39 39 38 36 35 35
46 51 52 53 53 55 57 56 54 55 54 51 49 47 45 42 37 38 35 35 35 34 35 38 40 41 40 39 38 37 36 35
45 48 52 53 54 55 56 56 56 55 56 53 50 48 46 42 37 36 35 32 35 35 35 38 41 41 40 40 38 37 37 37
46 46 51 53 54 55 56 56 56 54 54 51 49 48 46 41 42 38 34 33 34 37 36 36 40 40 39 40 39 38 37 36
47 48 51 53 54 55 56 56 54 51 50 49 47 46 45 43 39 37 35 36 36 35 35 35 35 35 36 38 38 37 35 35
49 51 52 53 54 55 54 53 50 47 46 47 47 45 44 41 38 36 35 36 35 35 34 35 34 34 34 33 33 32 30 30
50 51 52 53 54 52 50 48 45 48 46 45 45 43 40 37 36 34 34 35 35 34 34 34 34 34 34 33 32 31 31 30
50 51 51 51 48 48 48 48 45 43 44 45 43 42 38 35 34 35 35 35 34 34 33 33 34 34 33 33 33 32 31 31
48 49 49 48 48 48 47 47 45 44 44 42 43 42 39 37 36 36 34 34 33 33 33 33 33 33 33 33 32 32 31 31
45 46 47 48 48 48 47 46 45 44 43 42 42 41 40 39 35 35 35 35 33 33 33 33 35 36 32 33 32 31 30 30
39 41 41 42 45 47 46 44 42 42 42 41 41 40 38 37 36 35 34 33 32 32 33 38 38 33 34 34 34 31 29 28
34 34 37 40 43 43 44 43 42 41 40 39 39 38 37 37 34 34 34 35 37 38 39 37 35 33 33 35 35 32 29 28
32 32 34 37 42 43 41 40 39 38 37 37 37 36 36 35 35 36 37 39 39 39 38 36 33 31 33 34 33 32 29 26

GFSFLT1_sfc_dewp_027.txt.gz
Dewpoint
54 56 56 56 57 59 58 59 60 62 59 58 60 59 58 59 59 55 53 49 49 50 49 49 46 45 44 42 43 43 42 39
54 56 57 57 59 58 58 59 60 59 57 57 58 58 57 57 55 54 53 50 49 49 47 47 45 44 44 44 42 42 39 40
55 55 56 57 58 59 59 59 59 58 57 57 57 56 54 55 51 52 51 49 48 47 47 44 44 43 44 44 43 40 39 40
55 55 56 57 58 59 59 58 58 58 58 53 51 53 49 48 47 48 47 48 46 44 45 43 41 39 38 42 42 42 37 37
54 55 56 57 58 59 59 58 58 57 55 54 53 54 51 48 47 46 44 44 42 37 38 40 40 39 40 41 41 42 40 36
53 55 55 56 57 58 59 58 57 57 54 54 53 53 53 49 45 42 40 40 39 37 40 41 41 41 43 43 42 41 40 39
51 54 56 56 58 59 60 58 57 57 55 53 53 52 50 46 43 40 39 38 38 39 39 41 42 42 42 44 43 41 38 37
49 51 54 55 57 58 58 58 57 57 56 54 53 51 49 48 44 42 41 40 40 40 42 42 41 43 43 42 41 40 40 37
47 49 53 55 56 56 57 57 57 57 56 55 52 51 51 51 48 44 41 41 41 40 41 41 42 43 43 42 40 40 41 39
46 47 50 54 55 56 57 57 57 57 57 57 55 53 52 51 49 46 45 42 39 41 39 39 42 44 42 42 40 40 41 41
45 47 48 53 54 55 57 57 57 57 57 58 56 54 52 52 48 44 43 41 38 38 38 40 41 41 41 41 40 41 40 40
45 47 48 51 54 55 57 56 56 57 57 56 55 53 52 50 47 45 42 39 39 38 37 37 38 37 37 37 37 38 39 38
48 49 51 52 53 54 55 56 56 55 52 54 53 52 50 48 46 44 41 39 38 36 37 35 34 34 35 35 35 33 35 34
47 51 52 53 53 53 53 53 53 51 51 50 49 49 48 47 46 43 41 38 36 36 35 34 34 34 34 35 35 35 34 34
47 50 51 51 51 52 52 51 49 47 47 48 48 47 46 45 43 40 38 38 36 35 35 33 35 34 34 38 37 35 35 34
45 47 49 50 50 50 49 49 48 47 46 46 46 46 44 41 39 38 37 36 35 35 36 37 39 39 40 40 37 35 34 34
39 41 42 43 44 47 48 48 47 46 45 44 44 43 40 39 38 38 37 36 35 33 35 40 41 40 38 37 35 34 33 33
35 37 40 43 44 45 46 46 44 44 43 43 42 40 39 38 37 36 35 35 37 39 41 41 40 41 36 35 35 33 33 33
33 35 36 37 39 39 41 41 41 40 39 39 39 39 37 36 36 37 39 40 41 41 40 40 40 36 34 35 33 33 33 32

GFSFLT1_sfc_dewp_030.txt.gz
Dewpoint
53 55 56 54 54 56 56 58 60 62 60 57 52 57 59 62 61 58 57 53 53 53 52 52 49 46 46 45 44 41 40 38
51 53 55 55 57 55 56 57 59 60 58 54 53 56 59 60 60 59 57 54 52 53 51 50 48 46 46 46 41 41 38 40
50 52 53 54 55 57 57 57 58 59 56 53 54 56 57 60 60 59 57 55 52 52 51 48 48 46 46 44 41 37 37 39
49 51 53 54 54 55 55 56 57 59 57 54 57 58 58 58 57 58 57 55 52 50 51 48 48 45 42 43 41 39 37 39
49 52 54 54 55 56 56 56 56 58 59 56 57 54 55 57 58 57 54 54 52 48 48 48 47 40 39 39 38 42 41 40
48 50 52 55 56 56 58 58 57 57 59 58 57 57 56 57 56 54 53 51 50 47 46 45 43 39 40 40 43 43 43 40
48 50 52 53 56 57 58 58 57 58 59 59 59 58 57 56 53 50 49 46 47 45 42 44 42 39 42 44 46 46 42 40
48 49 50 53 55 57 58 58 57 58 59 59 59 59 59 56 53 51 49 46 45 46 44 43 43 43 45 44 45 44 41 40
46 48 50 52 55 57 58 57 57 57 58 59 58 58 58 55 54 52 50 47 45 44 44 44 41 44 44 46 46 42 42 39
41 45 49 52 54 57 59 57 57 57 58 59 59 59 57 56 54 52 50 47 44 44 45 43 43 44 45 46 42 41 40 41
39 42 46 49 52 55 58 58 57 57 58 59 59 59 57 56 54 52 48 47 46 44 43 42 44 44 46 43 41 39 39 40
44 44 45 47 50 53 55 57 57 57 58 59 60 59 57 55 53 52 51 50 46 43 41 44 42 44 42 41 38 35 39 38
45 47 48 49 51 52 53 54 55 56 57 58 59 58 57 56 55 53 52 49 44 41 42 40 38 39 37 36 34 34 36 37
44 49 50 50 52 53 53 55 55 55 56 55 56 56 55 54 52 51 48 43 43 43 39 36 36 36 34 36 36 38 41 37
43 48 51 52 53 54 54 55 55 54 53 54 54 54 53 53 52 49 48 45 42 39 38 37 36 34 32 36 40 42 41 36
46 48 50 51 53 53 52 53 52 52 51 50 51 51 51 50 49 48 46 44 40 37 36 37 36 36 40 42 41 40 39 36
43 43 43 43 45 47 49 49 49 49 48 48 47 47 46 45 43 41 40 38 36 36 36 38 41 41 39 39 39 40 37 35
39 41 43 43 44 46 46 46 46 46 46 45 44 44 42 42 40 37 36 35 37 37 39 39 40 40 39 38 36 36 38 38
38 39 40 41 42 42 43 42 42 42 41 41 42 41 40 38 37 37 37 39 40 41 41 39 38 38 37 36 36 38 39 34

GFSFLT1_sfc_dewp_033.txt.gz
Dewpoint
50 49 51 52 54 54 55 56 57 57 59 58 52 50 53 55 60 59 60 57 57 57 54 54 53 50 48 47 47 41 40 39
50 52 51 52 54 53 53 54 55 56 58 54 50 49 52 57 61 60 59 57 56 57 54 54 53 50 49 49 44 43 38 39
47 51 52 52 53 54 53 53 55 55 53 52 50 50 51 55 62 60 59 59 56 56 55 53 53 48 49 49 45 40 38 41
45 48 51 53 53 53 53 54 54 56 55 52 49 49 53 53 57 59 59 59 56 55 55 54 53 50 49 48 45 42 38 41
44 46 48 51 52 55 54 54 53 54 55 52 51 50 50 54 56 57 58 59 58 54 54 54 52 50 49 47 42 42 42 41
43 45 47 49 52 53 55 54 54 54 56 56 53 54 54 54 56 58 59 58 57 55 53 54 52 49 48 47 43 43 46 45
41 43 47 49 51 54 56 54 52 54 55 57 58 56 56 54 58 57 56 56 54 55 51 52 51 49 45 43 45 46 47 45
40 41 43 47 52 54 55 54 53 54 56 57 59 58 58 57 57 57 54 53 52 51 51 50 49 47 48 48 47 47 47 46
41 41 43 45 49 53 55 54 54 54 58 57 59 59 59 60 60 58 57 53 51 53 50 49 46 46 47 47 48 47 47 47
40 41 43 46 48 52 57 55 54 55 56 58 60 60 60 60 60 59 55 51 51 51 49 47 45 46 47 47 47 47 46 46
36 39 43 45 48 50 58 56 55 55 58 59 60 60 60 60 60 57 54 52 50 47 47 45 45 47 46 47 47 46 44 43
41 40 41 44 48 51 54 56 56 56 57 59 61 61 61 60 59 56 54 52 49 47 47 47 45 45 44 44 46 43 40 40
41 44 44 45 47 49 52 55 56 56 57 58 60 61 59 58 57 55 55 54 52 50 47 44 44 43 43 44 42 38 38 38
41 45 47 47 49 51 52 54 54 55 55 56 58 59 58 57 56 57 56 53 50 46 43 43 43 43 42 43 40 36 41 42
36 45 48 49 51 52 53 54 55 54 55 55 56 57 56 56 55 53 51 47 44 43 43 42 42 40 38 36 39 41 42 42
40 44 48 51 53 53 54 55 55 54 53 53 54 54 53 52 52 51 50 48 45 43 41 40 40 38 37 39 42 42 41 41
44 47 49 51 51 52 52 51 51 51 50 49 50 50 49 49 47 46 45 44 42 39 38 38 38 38 40 40 41 40 40 40
42 43 44 45 45 47 47 47 47 47 46 46 46 46 45 44 42 40 39 39 38 38 39 40 40 42 39 39 37 38 38 38
41 41 41 42 43 43 44 43 43 43 43 43 43 43 41 40 39 38 38 38 38 38 38 37 38 38 38 38 36 38 39 39

GFSFLT1_sfc_dewp_036.txt.gz
Dewpoint
50 51 53 51 49 47 47 48 51 53 51 47 52 53 56 56 57 60 61 60 60 60 59 58 55 54 53 50 49 45 46 44
51 51 54 52 51 50 51 53 53 53 54 54 55 52 53 54 61 60 62 60 59 59 58 57 55 54 52 52 48 44 42 42
49 51 52 54 53 53 55 56 56 54 56 57 56 53 52 54 61 61 62 61 58 58 58 56 56 54 53 52 48 46 45 44
48 50 51 53 54 54 54 55 56 57 57 57 55 53 53 52 59 60 60 60 59 57 58 57 56 55 53 52 49 46 43 44
47 49 51 52 54 55 54 53 53 54 56 53 53 49 48 52 58 59 59 61 60 58 57 57 57 54 53 51 49 46 44 44
43 47 50 52 54 55 55 54 54 55 56 56 55 51 51 52 58 58 59 60 60 59 58 57 55 53 51 49 47 45 45 46
43 45 48 50 53 55 56 55 54 54 56 56 57 55 55 55 57 58 59 59 60 59 56 55 52 51 51 50 50 46 48 47
42 44 45 48 50 54 55 55 54 55 56 57 57 58 56 56 57 59 58 58 56 55 51 51 51 51 51 50 48 48 48 46
43 41 46 48 50 52 53 53 54 53 55 57 58 57 58 59 59 60 59 58 55 53 52 51 51 50 48 47 48 47 47 48
42 42 43 48 51 53 55 54 53 54 55 56 57 60 60 61 61 60 59 56 52 52 52 51 49 47 47 47 47 47 47 48
40 42 44 46 48 52 56 56 54 54 55 57 58 60 60 61 60 60 58 54 52 53 52 50 47 46 47 47 46 47 47 46
41 42 43 46 47 47 54 56 55 55 56 58 60 60 59 58 60 60 56 54 54 51 50 48 46 46 46 45 45 46 45 44
41 44 45 45 47 50 55 55 56 57 58 60 60 60 61 60 59 57 56 55 53 50 48 46 46 46 45 44 45 44 43 42
41 45 46 46 48 50 52 56 57 57 58 59 60 60 59 58 57 56 55 54 53 51 48 46 45 44 44 43 44 44 42 42
35 44 47 49 51 52 53 55 57 56 56 59 59 58 58 57 56 54 49 46 44 44 45 44 44 44 43 43 44 43 43 43
36 44 48 50 52 54 54 56 57 57 56 56 56 57 57 56 55 52 49 46 44 43 43 43 43 42 42 41 42 42 41 40
38 42 49 51 53 54 55 54 55 55 54 53 53 54 52 52 51 50 49 47 45 43 42 41 40 39 37 41 41 40 39 40
43 47 50 52 52 53 51 51 51 50 49 49 49 48 47 46 44 43 43 42 41 39 40 40 41 41 40 39 38 39 38 37
45 45 46 47 48 47 48 47 47 46 45 45 46 45 43 42 40 39 39 39 39 39 39 39 39 39 39 38 36 37 38 39

GFSFLT1_sfc_dewp_039.txt.gz
Dewpoint
52 52 52 50 51 51 52 53 52 51 51 51 51 50 51 51 55 60 59 59 59 58 58 57 54 52 52 50 47 46 43 41
51 51 51 50 49 50 52 51 50 49 47 47 48 49 52 54 56 60 60 60 60 58 57 55 53 53 51 49 48 41 40 40
51 51 50 49 46 46 47 47 48 49 47 45 47 54 51 53 54 60 61 61 60 59 57 54 53 53 52 50 45 43 41 40
50 51 50 48 47 46 45 45 51 49 50 48 53 55 51 52 55 58 60 58 54 58 58 55 54 54 53 50 46 43 41 43
49 51 51 49 49 50 51 52 54 52 52 53 54 54 51 49 53 58 59 59 58 59 58 56 55 54 53 50 48 46 44 41
48 49 52 52 50 51 53 54 54 53 53 54 55 53 52 50 55 58 58 59 59 59 58 57 55 54 53 51 49 47 49 49
48 49 50 52 53 52 53 53 54 54 55 55 55 55 50 49 50 58 58 59 60 59 58 58 56 51 50 51 50 50 49 49
46 48 49 50 51 52 52 52 51 52 53 54 54 54 53 51 52 57 58 58 57 58 56 54 51 51 51 51 50 48 47 47
43 46 48 50 51 52 53 53 52 53 53 54 54 55 54 53 56 57 58 59 59 56 52 52 51 52 51 49 48 47 47 47
41 43 45 47 50 51 53 53 53 53 54 54 55 55 56 58 58 59 59 59 56 54 52 51 50 49 48 47 47 47 47 47
42 42 44 45 47 50 52 52 53 53 53 54 56 57 57 59 58 56 57 55 55 53 53 52 51 48 47 47 47 47 47 47
40 44 44 45 46 47 51 52 56 56 56 55 56 58 59 58 59 59 57 54 54 53 54 52 47 47 47 46 45 47 45 45
38 40 41 43 46 49 51 53 56 54 55 57 58 59 59 58 58 57 55 53 53 54 52 50 47 47 46 45 45 45 44 44
41 42 43 44 45 49 53 56 57 56 55 56 60 60 60 58 57 57 54 54 53 51 49 47 46 46 45 45 44 44 45 44
42 44 45 45 48 52 54 56 58 59 60 59 57 57 56 56 55 54 52 51 50 50 48 46 46 45 44 44 44 44 43 43
41 45 46 49 52 54 55 56 56 58 58 57 56 56 56 54 52 50 47 47 46 45 45 45 44 44 43 44 44 43 42 42
35 47 49 51 52 54 54 54 54 55 55 55 55 55 54 54 51 49 47 45 44 43 43 43 43 42 40 40 42 41 40 39
40 49 51 52 54 53 52 51 50 51 51 50 49 48 47 46 47 47 45 43 41 40 40 39 39 38 38 39 38 39 38 36
49 50 50 51 51 50 49 48 48 47 46 46 46 44 43 41 40 39 38 39 38 38 39 40 39 39 38 37 36 36 36 37

GFSFLT1_sfc_dewp_042.txt.gz
Dewpoint
52 52 52 52 52 52 53 53 53 53 54 54 54 52 48 48 49 53 55 57 57 58 56 56 54 52 50 48 47 47 44 42
52 52 51 51 51 51 52 52 53 52 51 53 52 50 49 50 51 53 57 57 59 58 57 56 54 51 51 49 47 43 42 42
51 52 50 50 50 51 51 52 52 51 51 51 50 49 49 51 51 55 59 60 59 58 57 56 53 52 51 49 46 43 40 41
50 51 50 49 49 50 51 51 50 50 49 48 47 49 52 51 51 53 56 59 59 59 57 56 53 52 52 50 46 43 41 42
50 50 50 49 48 49 50 50 49 49 49 46 45 46 47 49 52 52 56 59 59 58 58 56 54 53 52 51 47 44 43 42
50 50 50 49 47 46 46 48 47 48 49 47 46 46 48 53 51 51 55 58 58 56 57 57 55 54 54 53 48 46 48 48
50 51 50 48 47 45 45 45 45 51 49 49 49 50 52 54 51 51 53 56 58 58 58 58 56 56 55 53 51 48 49 47
49 50 51 49 47 47 47 47 48 51 52 51 51 53 55 53 51 53 54 56 56 58 58 58 56 54 54 53 50 49 48 47
48 49 51 51 48 48 49 50 51 51 52 52 52 53 54 55 53 53 57 57 58 59 59 58 56 53 52 52 50 50 48 48
47 48 49 51 52 50 50 51 52 52 53 53 53 54 55 56 54 55 56 58 58 58 57 56 54 53 52 51 50 48 48 48
43 46 49 50 51 52 52 52 51 52 53 54 54 54 55 56 56 56 57 55 56 56 54 53 52 51 50 50 49 48 47 48
42 43 47 48 50 51 53 53 53 53 55 55 54 55 56 57 57 57 57 57 56 54 53 51 51 50 49 48 47 47 47 46
39 42 44 46 47 49 51 53 54 55 55 56 57 58 57 58 58 58 57 57 57 55 53 53 50 49 48 47 46 47 46 45
39 41 42 45 45 46 47 51 53 54 56 58 59 59 59 59 59 58 58 58 57 54 53 52 50 49 47 46 46 45 45 44
40 41 43 44 47 51 48 50 53 54 55 56 56 58 59 59 59 57 57 54 53 53 51 50 48 47 46 45 45 44 44 44
41 42 44 48 53 55 55 51 53 55 55 55 54 57 58 58 55 54 53 52 51 50 49 48 46 45 45 44 44 44 43 43
38 44 46 51 54 54 55 56 56 58 58 58 57 56 55 54 52 50 48 48 47 46 45 45 44 44 40 41 43 42 42 41
32 44 48 52 54 54 54 54 55 55 56 56 55 54 53 51 50 48 47 44 43 43 43 44 42 43 39 40 40 41 39 39
41 47 51 53 53 52 51 52 51 50 51 50 50 49 49 48 46 44 41 41 40 39 38 39 39 39 38 38 36 36 35 37

GFSFLT1_sfc_dewp_045.txt.gz
Dewpoint
52 53 53 54 54 54 55 55 55 55 55 55 55 54 50 49 50 54 56 56 57 57 56 56 55 53 51 50 47 46 44 41
52 51 52 52 53 53 53 54 55 55 54 53 53 51 50 49 50 52 53 55 57 56 55 55 54 52 51 49 47 45 43 42
52 51 51 51 52 51 52 52 53 52 52 51 51 50 50 49 50 51 55 56 56 57 56 56 54 52 50 49 46 43 42 41
51 51 50 50 50 51 51 51 52 52 52 51 48 49 50 49 49 51 52 56 57 57 57 56 55 53 51 49 47 44 41 41
51 51 50 49 50 51 51 51 51 51 51 49 49 48 46 46 47 49 51 55 57 59 58 56 55 53 52 51 48 44 44 41
51 50 51 50 50 50 51 51 51 50 50 49 48 47 48 48 50 51 52 54 57 58 58 57 56 54 53 53 51 51 48 48
51 50 50 50 49 49 49 50 50 50 50 49 47 48 46 48 50 51 52 53 56 56 57 57 56 55 54 54 53 51 49 49
50 50 50 50 48 48 48 48 49 49 49 49 48 46 47 47 50 51 52 53 54 56 56 55 56 56 55 55 53 51 50 49
49 50 50 50 48 46 47 46 47 48 48 48 49 49 48 48 50 53 54 53 54 55 56 57 57 57 55 54 54 53 51 50
48 49 50 50 49 47 46 45 45 46 46 50 49 49 50 50 52 54 54 54 56 56 56 57 58 57 56 54 53 51 50 49
48 49 50 51 50 48 48 46 45 45 46 48 51 51 51 52 54 55 54 54 56 56 55 56 55 55 54 54 52 50 49 49
45 48 49 50 51 50 48 48 47 48 50 51 52 52 53 54 55 55 55 55 56 56 56 55 53 53 51 50 49 48 48 48
43 44 47 49 50 51 51 50 49 51 52 53 54 55 55 56 57 57 57 57 57 56 55 54 52 51 50 50 48 48 47 47
39 42 43 47 49 50 51 53 53 52 53 54 55 56 56 56 56 57 57 57 58 57 57 54 53 52 50 49 48 47 47 47
37 38 42 44 47 48 50 51 53 54 54 54 55 56 56 56 57 57 57 58 57 57 54 53 52 50 49 48 47 46 46 45
38 40 41 43 45 46 47 48 51 53 54 55 55 56 57 57 57 58 58 57 57 54 53 51 50 48 47 46 46 45 44 44
33 40 42 45 48 49 51 49 51 53 53 55 55 55 56 57 56 54 53 52 51 51 50 48 47 47 44 41 43 44 43 42
30 38 42 45 51 53 53 54 55 54 54 55 55 55 55 53 52 51 50 48 46 46 46 46 45 44 40 41 40 42 42 41
31 31 44 49 53 52 53 54 55 56 56 55 55 53 51 50 49 47 45 45 44 44 43 43 43 42 39 39 38 39 38 38

GFSFLT1_sfc_dewp_048.txt.gz
Dewpoint
51 53 54 55 54 55 56 57 57 57 57 56 55 54 50 54 55 57 56 55 56 55 54 53 53 51 52 50 47 46 45 41
51 52 54 54 54 54 55 56 56 56 56 55 54 54 51 49 51 54 57 56 57 57 56 56 55 53 52 50 47 45 43 42
52 50 52 53 53 54 54 54 55 56 57 56 54 54 50 49 50 53 56 56 57 57 56 56 55 53 51 49 47 45 44 42
51 50 50 52 52 52 53 53 54 55 55 54 50 50 50 49 49 51 52 55 55 56 56 55 55 53 51 49 47 45 43 42
51 50 49 50 51 52 52 53 53 53 52 51 50 50 49 49 47 49 50 53 54 56 56 56 55 54 52 51 48 46 44 42
51 51 50 50 50 51 51 52 52 52 51 51 50 49 49 48 48 48 49 52 53 55 56 56 55 54 53 52 50 47 47 46
50 51 51 50 50 50 51 51 51 51 50 50 50 50 49 48 48 48 49 51 53 54 56 56 55 54 54 53 52 50 51 50
50 50 50 50 49 49 50 51 51 51 50 50 49 49 49 48 47 48 49 50 51 52 54 54 54 54 54 54 53 52 52 51
49 50 50 50 49 49 49 50 50 50 50 50 49 49 48 48 48 49 50 52 52 52 54 54 54 54 54 54 53 54 53 52
48 50 50 50 49 49 49 49 49 50 50 50 49 49 48 48 49 50 52 52 53 54 54 54 54 55 55 54 54 54 53 53
48 49 50 50 49 49 49 48 48 48 49 49 49 49 50 50 50 51 52 53 53 54 55 55 56 56 56 56 56 56 55 53
47 48 49 50 50 49 48 48 48 48 48 49 50 50 50 51 51 53 54 54 54 54 55 56 56 56 56 56 55 52 52 52
44 47 49 50 51 50 48 48 47 47 48 48 50 51 52 52 52 52 53 52 55 55 55 56 56 56 53 52 51 51 51 50
42 45 48 49 50 51 50 49 48 48 48 49 50 51 52 53 53 53 53 54 55 56 56 56 55 52 51 51 50 50 49 48
37 43 44 47 49 50 51 51 50 50 49 50 50 51 52 52 53 53 54 55 55 56 57 56 56 52 50 50 50 48 47 47
35 37 41 43 47 49 50 51 52 52 51 50 51 52 53 53 54 54 55 56 56 57 57 55 52 51 50 49 48 47 46 45
29 37 39 41 44 47 49 50 51 53 53 52 52 53 54 54 54 55 56 56 57 57 55 51 50 49 44 44 46 46 45 44
29 33 39 41 43 45 46 48 49 52 53 53 54 54 54 55 56 56 56 55 53 51 50 49 48 48 41 42 43 44 43 42
31 31 35 40 44 50 50 52 51 51 52 53 53 54 55 55 53 52 49 49 49 47 46 46 45 43 40 39 39 41 39 39

GFSFLT1_sfc_dewp_051.txt.gz
Dewpoint
51 54 54 55 56 57 58 58 58 58 58 58 58 58 56 58 59 58 56 54 54 54 51 52 51 52 51 49 48 47 44 43
51 52 55 54 56 56 57 57 57 57 57 56 56 56 55 56 57 57 57 55 55 56 54 54 52 51 53 53 50 49 46 45
51 51 53 54 55 55 56 57 57 57 57 57 56 55 53 54 56 58 57 57 56 57 57 56 55 54 54 55 52 49 48 46
51 51 52 53 54 55 55 56 56 56 57 56 55 53 51 50 52 55 56 57 55 56 58 58 58 58 54 55 54 52 49 47
51 51 51 52 53 54 54 56 56 56 57 55 53 52 51 50 50 52 52 55 57 57 58 58 58 58 58 57 54 54 53 50
51 52 51 51 53 53 54 55 55 56 55 55 53 53 52 52 51 51 51 53 54 55 57 58 58 58 58 58 57 55 54 54
50 52 52 51 51 52 53 53 54 54 55 54 54 53 52 51 50 50 50 50 54 55 54 57 58 59 59 59 58 57 56 54
49 51 51 51 50 50 51 52 52 54 54 54 54 54 53 52 52 51 52 52 53 54 55 56 57 58 59 59 58 58 57 56
49 50 51 51 51 51 51 52 52 53 54 53 53 53 52 52 52 52 53 53 53 54 55 56 56 57 57 58 58 58 58 57
48 50 51 52 51 51 52 52 52 52 53 54 54 53 52 52 53 53 54 54 53 54 55 55 56 57 57 58 58 58 57 57
47 50 51 52 52 51 52 52 51 52 53 53 53 53 53 53 53 53 53 54 54 54 55 56 56 57 57 57 58 58 57 56
46 49 51 51 52 51 51 51 51 52 53 54 54 54 54 53 53 52 52 52 52 53 54 55 56 56 57 58 58 58 55 56
43 48 50 51 51 51 50 51 50 52 52 53 54 54 53 53 53 53 54 53 53 52 53 54 55 56 57 57 57 56 54 54
40 46 49 50 51 51 50 51 50 51 51 52 53 53 54 52 53 53 54 54 54 54 54 55 55 55 56 57 56 54 53 54
32 42 47 49 50 51 51 51 51 50 49 50 51 52 52 53 53 53 54 54 54 54 55 55 56 56 56 55 55 55 54 53
32 36 42 46 49 51 52 52 52 51 49 49 50 51 52 52 53 54 54 54 54 55 56 56 56 56 55 54 53 52 51 49
33 34 37 43 46 49 51 52 53 52 51 50 50 51 51 52 52 53 54 55 55 56 56 56 57 56 48 46 49 51 50 47
34 34 35 39 43 47 49 51 53 53 52 52 52 52 52 54 53 53 54 55 56 57 57 56 55 54 44 44 43 48 46 45
36 36 36 38 43 44 47 48 51 53 53 53 53 53 53 54 54 54 56 56 56 55 53 51 49 47 41 41 41 44 42 41

GFSFLT1_sfc_dewp_054.txt.gz
Dewpoint
50 53 54 55 57 59 58 58 59 59 59 60 59 59 59 59 58 56 55 52 53 51 48 52 52 50 50 49 48 46 45 43
51 53 53 55 57 57 58 57 57 58 57 58 58 57 56 57 56 57 58 53 53 53 49 52 52 51 52 53 50 49 45 46
50 52 53 54 55 57 58 57 58 57 57 58 57 57 54 55 55 56 57 58 53 53 52 51 52 51 55 55 53 50 48 47
50 51 53 55 55 56 57 57 57 57 57 58 57 57 57 55 54 54 56 57 53 53 54 53 53 52 53 56 55 54 50 51
49 51 52 53 54 56 57 57 57 57 58 57 56 54 53 54 54 53 54 57 56 53 54 55 56 54 54 55 55 55 55 51
49 50 52 52 53 55 55 56 57 57 57 56 55 54 53 53 53 54 56 57 56 54 55 57 58 58 58 58 58 58 56 58
49 51 52 52 53 54 54 55 56 56 56 56 55 55 53 53 53 52 54 55 57 58 56 59 60 59 59 60 60 59 58 57
48 50 51 51 53 53 54 53 54 56 56 56 56 55 55 54 53 52 52 53 54 55 57 56 56 57 58 58 59 59 59 58
47 49 51 52 53 53 53 53 53 55 56 56 56 56 55 54 54 52 52 51 52 55 55 55 55 55 56 56 56 57 58 59
45 47 51 52 53 53 53 52 52 53 55 57 57 57 56 55 55 55 53 53 52 55 55 54 54 54 55 56 55 55 57 58
40 46 50 52 53 53 54 53 51 52 54 55 55 56 57 56 56 56 55 56 56 55 56 56 55 55 56 56 56 56 56 57
40 45 48 51 52 53 54 53 52 52 53 55 55 56 56 57 57 56 56 56 56 55 55 55 55 55 55 56 56 56 56 57
37 45 49 50 52 52 53 53 52 52 53 54 56 56 55 56 57 57 58 57 56 56 55 55 54 54 54 55 55 55 55 56
33 41 47 49 50 51 52 53 53 53 52 53 55 56 56 57 56 56 55 55 55 54 53 53 52 53 52 55 54 55 56 55
31 33 42 47 49 51 52 52 54 53 52 53 53 55 56 56 56 55 55 54 54 54 54 53 54 52 53 53 54 55 55 56
32 33 34 40 47 50 51 52 53 53 52 52 53 55 54 54 54 54 54 55 54 53 53 53 54 53 53 54 55 56 56 56
31 32 33 35 41 47 49 51 52 53 52 52 52 53 53 54 53 54 54 54 53 53 53 53 54 54 48 47 53 57 55 55
33 33 35 36 39 46 48 50 52 52 52 51 51 52 52 53 53 52 53 54 54 54 54 54 54 55 45 45 45 56 53 51
42 41 39 36 37 39 43 44 49 52 52 51 51 51 51 52 52 52 53 54 54 55 55 56 56 55 44 44 42 49 46 45

GFSFLT1_sfc_dewp_057.txt.gz
Dewpoint
48 50 51 55 58 58 59 58 59 59 59 59 59 59 60 60 58 56 55 52 53 55 54 57 53 48 48 48 51 49 47 46
47 52 52 54 56 59 59 58 59 59 58 57 57 57 58 58 59 55 56 53 53 55 53 57 56 52 51 53 49 48 46 47
48 51 52 54 55 58 58 57 58 58 58 58 57 57 57 57 57 59 56 56 52 53 54 53 55 52 55 55 54 49 45 46
48 50 53 54 55 57 57 57 57 57 58 59 58 57 56 55 55 55 56 57 53 53 55 55 55 55 55 57 56 54 49 49
46 49 52 54 54 56 57 57 57 57 58 57 57 55 53 53 53 52 52 57 56 53 54 56 57 55 56 58 56 56 55 51
45 48 51 53 54 56 57 57 57 57 57 57 57 55 55 53 53 53 54 57 58 56 55 57 57 56 57 58 59 59 57 55
44 48 50 52 53 55 56 57 57 57 57 57 57 55 54 53 53 53 54 55 57 57 55 57 59 60 60 59 60 60 59 58
44 46 48 51 53 54 55 55 56 57 57 56 57 56 55 55 54 53 52 55 56 57 58 57 58 60 60 59 60 61 61 60
43 46 49 50 53 53 53 54 54 57 57 56 57 56 55 55 55 54 54 53 55 57 58 58 59 59 60 59 59 59 59 59
41 44 48 50 52 54 54 52 52 54 57 57 56 56 55 55 56 56 55 55 54 57 58 59 59 59 59 59 59 59 59 59
37 42 46 50 52 53 55 52 51 52 55 57 57 57 56 57 56 57 57 56 55 56 57 57 57 57 58 58 57 57 57 57
34 37 42 48 51 52 54 53 51 51 54 56 57 58 58 58 57 58 57 57 56 54 54 55 55 55 56 56 56 56 56 56
32 37 43 46 50 51 53 54 52 51 52 55 58 59 59 58 59 59 59 58 58 56 54 54 54 54 55 55 55 54 55 55
30 34 42 46 48 50 52 54 53 52 52 54 57 58 58 58 59 59 59 59 58 57 55 55 54 55 55 55 55 55 55 55
29 30 33 42 47 49 50 52 55 53 52 53 54 57 57 58 58 59 59 58 58 57 57 56 56 55 54 54 54 55 55 55
34 34 33 34 40 47 49 51 53 54 53 52 54 56 57 57 57 58 58 58 57 56 57 57 57 55 54 55 54 54 54 54
38 39 38 36 36 36 46 49 52 53 54 54 54 55 55 56 56 57 57 57 57 57 56 56 56 54 47 44 50 55 54 53
40 42 42 42 41 41 39 44 50 51 53 54 53 55 55 56 56 55 56 56 57 56 56 56 56 56 44 44 44 54 56 57
41 42 43 43 43 42 43 38 43 48 50 52 53 54 54 55 55 55 55 56 56 56 56 56 56 55 43 44 44 55 55 53

GFSFLT1_sfc_dewp_063.txt.gz
Dewpoint
47 53 58 58 58 59 59 60 60 60 60 61 61 61 61 59 58 58 59 58 58 60 59 59 58 57 55 52 51 50 50 51
47 52 57 57 57 58 58 59 59 59 59 58 59 58 58 58 58 57 58 57 56 55 56 56 55 57 53 50 52 50 50 50
47 55 56 57 56 57 58 57 58 58 58 58 58 58 58 58 58 58 57 56 54 54 54 55 54 55 54 52 50 50 50 50
47 51 56 57 56 57 57 57 57 57 58 58 58 58 57 57 57 57 55 54 53 53 53 53 53 53 53 51 50 48 48 49
48 49 53 56 56 57 57 57 57 57 57 57 56 55 54 54 55 54 53 54 53 52 53 53 53 55 54 52 50 52 50 47
49 50 50 55 57 57 57 57 57 57 56 56 55 54 53 54 55 55 54 53 53 52 54 54 53 54 55 55 54 52 54 53
49 51 51 53 56 56 56 56 56 57 56 56 55 54 53 52 53 54 54 54 54 54 53 55 54 53 54 57 56 54 54 55
48 51 52 51 55 56 55 56 56 56 56 55 55 54 53 50 53 53 53 53 55 56 54 54 55 55 53 55 57 57 55 56
48 50 52 52 55 55 55 55 55 56 56 56 55 55 54 51 51 53 53 52 53 55 56 54 55 56 57 57 57 57 57 57
48 49 51 52 53 55 55 55 55 55 56 56 56 55 54 53 51 51 52 50 51 54 56 55 55 55 57 57 57 56 57 57
47 49 50 52 54 55 55 55 54 55 56 56 56 56 56 55 54 52 51 50 50 50 55 56 55 55 56 57 57 57 57 56
38 47 50 52 53 55 54 54 54 54 54 55 56 56 56 55 55 53 53 52 50 50 53 55 56 55 54 56 56 56 56 55
40 41 44 50 52 53 54 53 54 55 55 55 55 56 56 56 55 55 55 53 52 51 51 53 55 55 55 54 54 55 56 55
40 41 42 45 50 53 54 54 53 53 56 55 55 55 54 55 55 55 54 55 54 53 52 51 51 52 53 55 55 55 55 55
40 41 42 44 46 48 52 55 55 54 55 56 55 55 54 54 55 55 55 55 55 54 54 53 53 52 52 52 53 55 55 55
40 41 42 43 44 46 47 48 52 56 55 54 55 56 56 55 55 55 55 55 55 55 55 54 54 53 52 53 53 53 53 53
40 40 42 44 46 46 47 47 48 50 55 54 53 56 56 56 56 56 56 56 55 55 54 55 55 53 48 44 49 52 52 52
40 41 43 44 43 42 42 44 46 47 49 52 55 54 55 56 56 56 56 56 57 56 56 56 55 55 47 45 43 51 52 52
39 40 42 41 40 39 41 42 44 45 46 46 49 52 53 53 55 56 56 57 57 56 56 56 56 56 48 46 44 50 53 53

GFSFLT1_sfc_dewp_066.txt.gz
Dewpoint
48 57 58 58 58 58 59 60 61 60 61 61 61 60 59 58 59 58 59 58 60 60 56 57 53 52 50 52 52 52 51 52
52 58 58 57 57 57 58 59 60 60 60 59 59 59 59 59 59 58 59 58 58 60 57 57 56 55 53 52 51 50 51 52
53 57 57 57 57 56 57 59 59 59 59 59 59 59 59 59 58 58 58 58 57 58 58 56 57 57 55 52 51 50 50 51
52 56 56 56 57 56 56 58 58 58 58 58 57 58 58 57 58 58 59 58 55 54 57 55 56 56 54 51 51 49 49 50
50 55 56 55 56 57 56 57 57 57 58 57 57 55 55 56 57 57 58 57 55 54 55 54 55 55 55 53 51 49 49 48
49 54 55 56 56 56 56 57 57 57 57 57 56 56 56 56 56 56 57 57 55 53 53 55 53 55 56 55 52 50 49 51
47 52 55 56 56 57 56 56 56 56 57 57 55 55 54 54 55 54 55 54 53 54 52 53 54 54 55 55 53 50 50 50
48 49 54 55 55 56 55 55 55 56 56 56 55 54 53 53 54 54 53 53 52 53 53 54 54 54 54 56 55 52 51 53
49 49 52 55 55 55 55 55 55 56 56 55 55 54 53 52 53 53 53 53 52 53 53 53 54 53 53 54 56 56 54 55
49 50 50 55 55 55 55 55 55 56 56 56 55 54 54 52 52 53 53 53 54 55 54 53 54 55 55 55 53 55 56 55
49 51 51 52 55 55 55 55 55 55 56 56 55 55 54 53 52 51 53 53 52 53 56 55 55 54 55 56 56 56 55 55
48 50 52 52 55 55 55 54 54 55 56 56 56 56 55 55 53 51 51 52 51 51 54 55 55 54 54 54 55 56 56 55
43 48 51 52 54 55 54 54 54 54 55 55 55 56 56 56 55 54 53 51 51 50 50 54 55 55 54 53 52 52 55 55
43 44 45 47 50 55 55 55 55 55 54 54 55 55 55 55 55 55 55 53 52 51 50 49 51 54 55 54 53 53 53 55
42 44 46 47 48 48 49 52 54 55 55 55 54 54 55 55 55 55 55 55 54 53 52 51 50 49 51 53 54 54 53 53
42 44 44 43 42 43 44 45 47 49 55 55 55 55 55 55 55 55 55 55 55 54 54 54 53 52 50 50 51 51 52 53
42 41 40 39 39 40 41 43 44 47 47 47 54 56 57 56 55 55 55 55 55 54 54 54 54 53 48 45 48 51 51 51
40 39 37 35 35 37 39 40 42 42 42 43 45 46 50 55 56 56 55 54 55 55 55 55 53 54 47 45 43 51 52 53
38 36 34 33 33 34 35 36 37 37 38 39 41 43 46 46 47 50 56 56 55 55 55 55 55 54 47 44 43 50 52 52

GFSFLT1_sfc_dewp_069.txt.gz
Dewpoint
51 57 58 57 57 57 59 59 61 61 61 61 60 60 59 60 60 60 62 61 59 57 55 55 53 50 50 51 51 51 51 52
53 57 57 57 57 57 59 58 60 60 60 59 59 58 58 59 58 59 60 61 59 56 55 54 52 48 49 52 51 50 51 52
55 57 57 57 57 57 58 57 59 60 60 60 60 60 59 59 58 58 59 59 60 57 55 55 52 51 52 52 51 50 50 51
55 56 56 56 56 56 57 57 57 58 60 58 58 58 58 58 58 58 59 59 59 60 56 56 55 53 53 52 51 50 49 50
53 55 55 55 55 56 56 57 57 58 58 58 57 57 56 57 58 58 59 58 58 58 59 57 57 56 55 53 51 50 50 49
51 55 55 55 56 56 56 56 57 57 57 57 57 55 55 57 57 57 58 58 57 56 57 57 56 57 56 55 52 49 50 51
48 54 55 55 55 55 55 55 55 56 56 56 55 55 55 56 56 56 57 58 57 56 57 56 56 56 56 56 54 52 51 51
49 54 55 54 55 55 55 55 55 55 56 56 55 54 55 55 55 56 56 56 56 55 55 56 55 56 56 57 56 55 52 51
49 53 54 54 54 55 54 54 54 55 56 56 56 55 55 54 55 55 55 55 55 54 55 56 56 56 56 56 56 55 55 53
47 53 54 54 55 54 54 54 54 54 55 55 56 55 53 53 54 54 54 55 54 53 53 55 56 56 55 55 56 55 55 52
48 51 54 55 55 54 55 55 54 54 55 55 55 55 54 53 52 53 53 53 53 54 53 53 54 55 55 54 53 53 55 53
50 51 53 54 55 54 55 55 55 54 54 55 55 55 54 53 52 52 53 53 52 53 55 54 53 54 54 53 52 52 52 53
50 51 53 55 55 55 55 54 54 55 56 55 55 55 55 54 54 53 52 52 53 52 52 55 55 53 53 53 54 54 55 54
47 47 47 49 54 55 55 55 55 55 55 55 55 55 55 55 55 55 54 52 52 52 51 51 53 54 54 53 52 52 52 54
43 43 43 45 46 47 48 48 49 49 54 55 55 55 55 55 55 55 55 54 53 52 51 51 51 51 53 54 53 53 52 51
38 38 39 40 40 42 44 44 45 46 50 50 53 55 56 56 56 55 55 55 54 53 53 52 51 50 49 50 51 53 52 52
36 33 33 34 35 37 38 39 40 40 41 42 44 46 51 54 56 56 56 56 55 55 54 54 53 52 47 44 46 49 50 51
34 33 33 32 33 35 35 35 36 37 37 39 40 42 42 44 45 47 53 55 55 55 55 55 54 54 46 45 43 50 50 50
32 33 31 31 31 33 33 33 34 35 35 35 36 36 37 38 40 42 43 45 47 51 55 55 55 55 47 46 46 52 53 52

GFSFLT1_sfc_dewp_072.txt.gz
Dewpoint
50 56 57 57 57 58 59 60 60 60 61 61 60 60 60 60 61 61 61 63 61 60 58 57 56 54 53 51 50 51 53 53
53 56 57 56 55 57 58 59 61 61 60 59 59 58 58 59 60 61 61 61 59 57 56 55 53 52 52 51 50 50 52 53
54 56 57 56 57 57 57 57 60 61 60 59 59 59 59 59 59 60 61 60 58 57 56 53 52 50 51 51 50 50 52 53
53 55 56 57 56 57 56 57 59 60 60 59 59 58 59 58 58 59 59 61 59 58 57 53 52 49 50 52 51 50 50 51
53 54 55 56 56 57 56 56 57 59 59 58 57 57 56 58 58 59 59 60 60 58 57 56 52 51 52 51 52 51 51 50
53 54 55 55 56 56 56 56 57 58 59 58 58 57 57 57 58 58 59 59 59 59 57 57 55 55 55 54 53 51 51 51
51 54 55 55 55 55 56 55 54 56 57 58 57 56 55 56 56 57 58 57 58 58 59 57 57 57 56 55 54 52 52 52
51 54 54 54 54 55 55 54 54 54 56 56 56 56 55 55 56 56 56 57 56 56 58 57 58 56 57 56 54 53 52 52
49 53 54 54 54 54 55 54 54 54 54 54 55 54 54 55 56 56 57 57 57 56 57 57 57 57 57 57 56 55 55 54
47 53 54 54 54 54 54 54 54 54 54 54 54 54 54 54 56 56 56 57 56 56 56 57 56 57 57 57 57 56 56 56
51 53 54 54 54 54 54 54 53 53 54 53 54 54 53 53 54 54 55 56 55 54 54 55 56 56 56 56 56 56 56 56
52 53 53 54 54 54 54 54 53 53 54 54 53 53 53 52 52 52 54 54 54 53 53 54 54 55 56 56 55 54 55 55
52 53 54 53 54 55 54 54 54 54 55 54 54 54 54 52 52 52 52 53 53 53 54 53 53 54 54 55 54 53 53 53
43 45 47 50 53 54 54 54 55 56 55 55 55 55 54 53 53 53 52 52 52 52 52 54 54 54 53 53 54 53 52 52
39 40 42 44 45 47 47 47 48 48 54 55 55 55 55 55 55 55 54 53 52 52 52 52 52 53 54 53 53 53 53 53
35 37 38 40 40 41 40 40 41 43 46 46 47 51 56 56 56 56 56 55 54 53 52 52 52 52 51 52 53 53 53 52
32 32 33 34 35 34 35 37 38 39 39 40 41 43 45 45 47 48 54 56 56 55 54 53 53 51 46 44 47 51 51 52
32 31 31 31 32 33 33 34 35 35 35 35 35 37 37 38 41 42 43 45 47 48 52 55 55 54 47 45 42 50 50 50
31 30 29 30 31 31 32 33 32 32 31 31 31 32 33 35 36 36 38 41 43 44 45 45 44 41 35 35 37 48 52 52

GFSFLT1_sfc_dewp_075.txt.gz
Dewpoint
47 53 55 57 59 61 60 61 61 61 61 61 62 62 62 62 62 61 61 63 62 62 61 59 59 57 54 53 55 55 55 54
43 54 57 58 60 60 59 60 60 61 60 60 60 59 61 61 62 62 61 61 63 61 59 58 59 57 55 55 54 55 54 55
45 55 56 57 58 60 59 60 60 61 59 59 60 60 60 60 61 62 63 61 61 60 59 58 57 57 56 55 55 54 54 55
41 54 56 57 58 59 59 59 60 60 61 60 60 60 59 59 59 60 60 60 59 58 58 57 56 56 55 54 54 54 52 54
35 52 55 56 57 59 58 58 59 60 60 59 59 57 57 58 59 59 60 60 59 58 56 56 55 55 55 55 53 53 53 53
42 51 54 56 58 58 57 57 58 59 60 59 58 57 57 58 59 59 59 60 59 58 57 56 54 53 55 55 55 54 54 54
43 52 54 56 57 57 56 57 57 59 59 59 59 58 57 57 58 58 59 59 60 58 58 57 55 54 54 54 54 55 54 55
48 52 53 55 56 56 56 56 56 57 58 59 58 57 57 57 57 58 58 58 58 59 58 58 57 56 55 55 54 54 54 54
48 52 54 55 55 55 55 55 54 55 56 58 58 57 57 57 57 57 57 58 57 58 59 58 57 57 57 56 55 54 54 56
42 52 54 55 54 54 54 54 54 54 55 56 57 56 56 56 57 57 58 58 57 57 58 58 58 57 57 57 56 55 54 54
49 53 54 54 54 54 55 55 55 54 54 57 56 56 56 56 56 56 57 58 58 57 58 57 57 57 57 57 57 56 55 56
51 52 53 54 54 55 54 54 54 54 54 55 57 56 56 56 56 56 56 57 56 56 56 57 56 57 57 57 57 57 56 55
51 53 54 54 54 54 54 54 53 54 54 54 54 56 56 56 56 56 57 56 56 55 55 56 56 56 57 57 56 56 56 55
43 45 46 50 51 52 51 52 54 55 55 55 55 54 55 55 55 55 55 56 56 55 54 54 55 55 56 56 56 56 56 56
39 39 41 42 43 43 44 47 48 53 55 54 54 55 55 55 56 56 55 55 55 55 55 55 55 54 54 54 55 56 56 55
34 35 36 38 39 41 42 41 42 43 44 44 45 47 48 50 52 54 56 56 54 54 54 54 55 54 54 55 54 54 54 55
31 31 32 33 34 35 37 37 37 36 36 36 38 39 41 43 45 46 47 47 48 53 54 54 53 48 36 38 45 54 54 54
30 30 30 31 32 33 33 32 33 33 33 32 33 35 36 37 38 39 41 43 45 45 44 44 42 35 35 36 36 43 50 52
30 30 30 30 31 31 31 30 29 29 29 29 31 33 33 34 36 37 39 41 42 39 37 35 36 33 34 34 34 41 45 48

GFSFLT1_sfc_dewp_078.txt.gz
Dewpoint
28 39 50 55 57 61 62 62 63 63 63 63 62 63 63 63 62 63 63 63 63 63 63 61 61 59 59 59 59 58 55 54
28 38 51 55 59 60 61 62 62 62 62 61 61 62 62 62 62 62 62 62 63 63 62 60 61 58 58 58 57 57 55 55
27 38 52 56 58 60 60 61 61 61 60 59 60 61 62 62 62 62 62 63 63 62 61 60 59 58 58 59 58 55 55 55
27 38 51 55 57 60 59 60 61 61 60 59 61 61 61 61 61 61 62 63 61 61 61 60 59 59 58 58 58 57 54 55
28 33 48 53 56 60 59 60 59 60 59 59 59 58 57 59 59 60 61 61 60 60 60 60 59 60 58 58 56 57 55 54
31 34 42 51 56 59 60 60 59 59 58 59 57 58 58 58 59 60 60 60 59 59 59 59 59 59 60 59 58 57 56 54
34 36 45 50 56 59 59 59 58 59 58 59 59 58 58 58 59 59 59 59 59 59 58 58 58 57 58 59 58 57 56 55
37 43 47 52 56 58 58 58 57 58 58 57 58 58 58 57 58 57 59 59 59 58 58 57 56 56 57 57 58 57 56 55
38 46 49 52 56 56 57 57 56 57 57 56 59 58 58 57 58 58 59 59 59 60 59 57 57 55 55 56 56 56 57 57
42 46 51 53 55 55 57 56 56 56 57 57 59 59 59 58 59 58 58 58 58 59 59 59 58 57 55 55 55 55 55 56
46 49 52 54 55 55 57 56 55 56 56 57 55 57 58 57 57 57 57 58 58 58 59 58 58 58 58 56 55 55 54 54
50 51 52 53 54 55 56 55 56 55 55 56 55 55 56 57 56 56 56 58 58 57 58 58 58 58 57 57 56 55 54 54
46 52 53 54 54 55 55 55 55 55 55 55 55 56 56 57 56 56 57 57 57 58 58 58 57 57 57 57 57 57 55 53
41 43 44 45 49 53 54 55 54 55 54 55 55 55 55 55 55 56 57 56 56 56 56 56 57 57 57 58 57 57 57 57
37 37 39 41 43 44 46 48 53 54 54 52 52 54 55 55 55 55 55 55 56 55 55 55 55 56 56 57 57 57 57 57
34 35 36 37 38 40 41 41 44 45 43 43 44 45 47 48 50 50 54 55 55 55 55 55 56 49 39 42 54 56 56 56
32 32 33 34 35 36 36 37 38 38 37 38 39 41 41 42 43 45 46 47 48 47 45 43 41 36 35 36 39 50 53 54
30 31 32 32 32 32 32 33 33 34 35 35 36 38 37 39 40 41 43 44 42 40 40 39 35 33 34 34 34 39 45 49
31 31 31 30 29 30 29 28 29 30 31 32 33 35 36 38 39 40 41 39 37 35 35 35 33 31 32 33 34 40 44 38

GFSFLT1_sfc_dewp_081.txt.gz
Dewpoint
21 27 34 42 50 57 62 63 64 64 63 62 62 63 63 64 63 64 64 65 64 64 63 62 62 62 61 62 61 60 56 55
24 30 36 46 53 58 61 62 63 62 61 61 61 61 61 62 63 63 63 64 64 64 62 61 61 61 61 61 60 58 58 56
25 28 38 50 54 58 61 61 62 61 59 59 59 61 61 61 62 63 62 62 63 62 62 61 61 60 59 59 60 58 56 56
25 26 37 51 53 58 59 61 61 61 60 59 60 61 61 60 61 62 61 62 62 63 62 61 60 59 58 58 59 57 55 57
26 25 35 49 53 58 59 60 60 60 60 59 59 59 57 59 59 61 61 61 62 62 61 60 60 59 58 59 60 59 57 54
27 26 28 45 53 57 59 60 59 59 59 59 57 56 57 58 58 60 61 61 61 61 61 60 59 59 59 59 59 59 57 56
28 26 27 41 51 58 59 59 58 59 59 58 58 57 57 57 58 59 60 60 59 59 60 60 60 59 59 59 59 59 58 57
35 31 31 39 51 57 59 58 57 59 59 58 57 57 59 58 58 59 59 58 58 58 58 58 59 60 60 59 59 59 59 57
43 36 37 44 51 57 58 57 57 58 58 58 57 57 57 57 58 57 59 59 59 59 58 58 58 58 59 59 59 58 59 59
48 40 46 48 54 59 59 57 57 57 57 57 56 57 57 57 58 59 60 60 60 60 59 57 57 57 57 58 58 58 59 59
50 45 48 50 57 57 58 57 57 57 57 56 57 57 57 58 59 58 57 58 58 59 59 59 57 56 56 56 56 56 55 56
46 50 52 55 56 56 58 57 57 57 57 56 56 57 57 58 58 57 57 58 58 58 59 59 58 57 56 55 55 54 54 54
41 45 48 54 55 56 56 56 55 56 56 56 57 56 56 57 56 56 57 57 57 58 58 57 58 58 57 57 56 55 53 53
38 40 42 45 47 51 53 56 56 57 56 56 56 56 57 56 56 56 57 56 57 57 58 57 57 58 58 57 57 56 55 54
35 36 38 40 42 43 44 46 51 54 53 52 53 54 55 55 55 57 58 57 56 56 56 57 57 56 54 55 57 57 57 57
33 34 35 36 38 39 40 41 43 45 45 45 45 46 47 48 49 52 54 52 51 50 54 47 42 39 36 39 47 55 57 57
32 33 33 33 34 36 37 38 38 40 40 41 41 42 43 44 45 46 44 43 43 43 40 38 37 34 34 35 37 48 52 52
32 33 32 32 32 32 35 36 38 37 37 37 39 41 41 42 43 41 40 39 38 38 37 35 33 33 34 35 35 42 42 38
32 32 30 31 31 32 33 33 34 35 34 36 37 38 39 41 40 38 37 36 35 35 35 34 32 31 33 34 35 39 35 32

GFSFLT1_sfc_dewp_087.txt.gz
Dewpoint
23 26 29 27 25 56 64 64 64 64 64 63 62 62 64 62 62 63 65 64 63 62 61 62 62 62 61 60 61 61 61 61
29 30 28 27 26 61 63 63 64 63 62 61 61 60 63 61 61 62 62 62 63 61 62 62 62 61 61 61 61 60 60 61
28 30 30 29 45 63 63 63 64 62 62 61 60 60 61 60 60 61 63 62 62 62 62 62 61 61 61 61 60 60 60 60
22 29 32 36 56 62 62 63 63 62 61 61 60 60 59 59 60 60 62 63 62 62 62 62 61 61 61 61 60 59 58 59
26 29 31 49 61 62 62 62 62 61 61 59 59 59 58 58 59 61 61 61 62 62 62 62 61 61 61 60 60 59 59 57
27 27 29 48 58 62 62 62 62 60 60 59 58 57 57 57 58 59 60 61 61 61 61 61 61 61 61 61 60 59 59 58
47 48 50 48 57 61 61 61 61 60 59 59 58 57 57 57 57 58 58 60 60 61 61 61 61 61 60 60 60 59 59 58
45 46 48 50 52 59 60 60 60 59 59 58 58 58 56 57 58 58 59 58 57 58 60 60 60 60 60 60 60 59 59 58
43 44 45 48 52 59 60 60 59 59 59 58 59 58 57 58 59 59 58 58 57 58 58 60 59 60 59 59 60 59 59 58
41 43 44 48 55 58 60 59 59 59 59 59 59 57 57 58 58 58 58 58 58 58 58 59 59 59 59 59 59 58 58 58
39 40 43 46 50 57 59 59 59 59 60 59 58 57 58 59 60 59 58 58 58 58 58 58 58 58 59 58 57 58 58 58
37 38 40 43 46 49 51 58 59 59 59 58 58 57 58 59 59 59 59 59 58 58 58 57 57 57 57 58 58 57 57 57
36 36 37 39 42 44 46 51 58 58 58 58 58 58 59 59 59 58 59 59 59 58 58 57 56 57 57 56 57 57 56 56
35 35 35 36 39 40 41 44 53 58 58 57 57 58 58 58 58 58 58 58 58 58 58 58 57 56 56 56 56 56 56 56
34 34 34 34 36 37 40 41 45 51 52 52 52 54 54 53 53 55 56 56 52 48 47 46 46 45 48 54 56 55 55 55
32 32 33 33 34 35 36 39 41 45 48 48 48 50 49 47 46 46 45 44 43 43 41 40 40 39 38 43 51 54 55 53
32 32 32 32 33 34 35 36 38 42 43 44 45 44 43 43 42 41 41 39 38 37 36 37 37 37 37 38 43 42 42 42
32 32 32 32 32 33 33 35 36 37 40 41 41 40 39 38 38 38 37 36 35 35 35 35 37 37 36 36 36 35 34 35
32 33 33 34 34 33 33 33 34 35 36 39 39 38 37 37 36 35 35 34 33 33 32 33 35 36 35 34 33 32 31 31

GFSFLT1_sfc_dewp_090.txt.gz
Dewpoint
21 24 24 24 24 51 65 65 66 65 65 64 64 64 63 64 63 64 63 64 63 63 62 62 63 63 62 62 61 60 60 60
19 26 28 27 27 57 63 65 65 65 64 63 62 62 62 62 62 62 63 63 63 62 61 62 63 62 61 60 60 59 60 61
20 20 29 30 32 55 63 64 64 64 64 62 61 61 61 63 61 61 61 61 61 61 61 62 62 61 61 60 59 59 59 61
22 20 25 30 38 60 63 63 63 63 63 61 60 59 59 60 61 59 60 61 61 61 62 62 61 61 60 61 60 59 58 59
36 38 41 41 42 59 62 63 63 62 61 60 59 58 57 59 60 58 59 60 60 61 62 61 61 61 60 60 60 59 59 57
45 47 48 50 57 60 62 63 62 61 61 60 59 58 57 58 58 58 58 59 60 61 61 61 61 61 61 60 60 59 59 57
44 46 47 47 51 61 62 62 61 61 60 60 59 58 57 57 58 58 59 59 60 61 61 61 61 61 60 60 60 59 59 58
42 43 45 47 50 53 62 62 60 61 59 59 58 58 57 57 57 58 59 59 59 60 61 61 61 61 61 61 60 60 59 58
41 42 43 46 49 54 62 61 60 59 59 58 58 58 57 57 58 59 58 58 58 59 60 60 60 60 60 60 60 60 59 59
39 40 41 43 46 52 59 61 60 59 59 58 58 58 57 57 58 58 58 58 57 57 58 58 59 59 59 59 60 59 59 59
37 38 39 43 45 48 54 59 59 59 59 59 58 57 57 58 58 57 58 58 58 57 57 58 58 59 59 59 59 59 58 58
35 36 38 41 43 45 49 52 59 59 59 59 57 57 58 59 58 58 58 58 58 57 57 58 57 58 58 57 57 58 58 57
34 34 35 38 38 42 44 47 50 58 59 58 58 59 59 59 59 59 59 58 58 58 57 57 57 57 57 57 57 57 57 56
33 33 34 35 36 38 41 44 46 54 58 58 58 58 58 58 58 59 59 59 58 58 57 57 57 57 57 57 57 57 57 57
32 32 33 34 35 36 37 41 45 47 54 55 54 54 54 54 54 53 54 52 50 49 48 48 49 49 53 56 57 56 56 56
32 31 32 32 34 34 35 37 41 44 47 48 49 48 48 48 47 45 44 43 43 43 43 42 42 41 41 48 54 55 54 47
31 32 32 32 32 33 35 36 37 41 42 42 44 45 43 42 41 41 39 39 38 38 38 39 39 39 38 39 45 45 45 43
31 31 31 32 32 34 34 35 36 37 39 41 39 39 39 38 37 37 36 36 36 36 37 37 36 36 36 36 36 37 36 36
31 31 31 32 32 33 34 34 35 35 35 37 37 36 36 35 35 34 33 34 33 34 35 35 34 34 34 34 33 32 32 31

GFSFLT1_sfc_dewp_093.txt.gz
Dewpoint
18 19 21 23 23 29 57 65 66 66 65 64 64 63 63 65 64 64 65 64 64 63 62 61 62 61 62 62 61 61 60 60
38 25 21 24 26 28 51 64 65 66 65 64 64 63 63 63 64 64 64 64 64 63 62 62 61 61 61 61 61 60 59 61
45 46 39 24 26 36 49 62 65 65 65 64 63 64 64 63 63 63 64 63 62 63 62 61 62 62 61 61 60 59 59 60
43 45 47 48 42 41 56 61 64 64 64 62 60 61 61 61 62 62 62 62 61 62 61 62 62 61 61 60 60 59 58 60
43 44 46 47 47 50 56 61 63 64 64 61 60 60 60 61 62 62 61 60 61 61 61 62 62 61 60 60 60 59 58 58
42 43 44 46 48 50 57 62 63 64 62 61 60 59 59 59 59 60 59 60 61 61 62 62 61 61 60 60 60 60 59 58
41 42 43 43 47 51 59 62 62 62 62 61 60 58 57 58 58 58 58 59 60 61 61 61 61 60 61 60 60 60 59 59
39 39 41 42 44 48 56 62 62 61 61 60 59 58 58 57 58 58 57 58 58 59 61 61 61 61 60 60 60 59 59 59
38 38 39 41 43 46 52 62 61 61 61 60 59 58 58 58 58 58 58 57 58 59 59 60 61 61 60 60 60 60 60 59
36 37 38 40 42 44 48 60 60 61 60 59 59 58 58 57 57 58 58 58 58 58 60 60 60 60 60 60 60 60 60 59
34 35 37 40 41 43 46 52 60 59 59 59 59 58 58 57 57 57 57 56 57 58 57 58 58 58 59 59 59 59 59 59
33 34 35 38 40 41 44 47 58 59 59 59 58 57 57 57 57 56 56 57 57 57 57 57 56 57 57 58 58 58 58 58
32 33 34 35 38 40 41 43 48 55 59 59 58 58 58 58 57 57 57 56 56 56 57 57 57 57 57 57 57 57 57 57
32 32 32 33 35 38 39 41 44 48 57 58 58 58 58 58 59 58 58 57 57 57 57 57 57 57 57 57 57 57 57 57
32 31 32 32 34 35 37 38 42 44 47 53 55 57 57 56 56 56 55 54 52 50 50 49 50 51 54 56 57 57 57 57
31 30 31 32 33 34 35 37 39 42 43 43 44 49 51 49 48 46 45 45 44 44 44 43 42 42 41 45 55 56 51 48
31 30 31 31 32 33 34 35 37 39 39 39 40 41 42 41 41 41 40 39 40 40 39 38 38 37 37 39 47 47 45 43
30 31 31 31 32 32 32 34 35 36 37 37 36 37 36 36 36 36 36 36 37 37 36 35 34 35 36 36 37 38 38 38
30 30 30 31 32 32 32 32 33 33 34 35 35 34 33 33 33 33 33 34 34 35 34 34 33 33 34 34 34 34 34 33

GFSFLT1_sfc_dewp_096.txt.gz
Dewpoint
44 45 46 47 38 23 31 56 65 66 66 66 66 65 65 65 64 64 64 63 62 62 62 62 62 62 62 62 61 61 61 61
44 44 46 47 47 39 27 47 63 66 66 64 64 63 64 65 64 64 64 63 63 63 62 61 62 61 61 61 61 60 60 61
43 43 45 47 47 48 45 37 59 65 64 65 64 64 64 64 64 64 64 64 63 63 62 62 61 61 61 61 61 60 60 61
42 42 44 45 45 47 48 50 54 64 64 65 61 63 62 61 62 63 63 64 63 63 62 61 61 61 60 61 61 60 59 60
41 42 42 43 44 46 47 50 53 63 64 64 62 61 60 61 62 62 63 63 63 63 62 61 60 62 61 61 61 60 59 58
40 40 40 41 43 44 47 50 55 62 64 63 62 61 61 61 61 56 60 62 62 62 62 60 61 61 61 60 60 60 60 58
39 39 39 40 43 44 45 49 58 63 63 63 61 60 58 60 61 60 61 61 61 62 62 61 61 60 60 60 60 60 59 59
37 37 37 38 40 42 44 47 54 63 62 62 61 60 58 59 60 60 60 60 60 60 60 60 60 60 60 60 60 60 60 59
36 36 36 37 39 41 43 46 50 62 62 61 61 58 58 58 59 59 59 60 60 60 60 60 59 59 60 60 60 59 59 59
34 35 36 36 38 41 42 44 48 60 61 60 59 58 58 58 58 59 59 59 58 58 59 59 60 60 60 60 60 59 59 59
33 33 35 36 38 39 42 44 47 60 60 60 59 59 58 58 58 58 58 58 58 57 58 59 60 60 60 60 60 60 59 59
32 32 33 35 37 39 39 43 46 51 59 59 58 58 58 58 58 58 57 57 57 57 57 58 58 58 58 58 58 58 58 59
31 31 32 33 35 36 37 40 44 47 51 58 57 57 58 57 57 57 56 56 56 56 57 56 56 56 57 57 57 57 57 57
30 30 31 32 33 35 36 38 42 44 48 55 58 58 58 57 57 57 56 56 55 55 55 57 56 57 57 57 57 57 57 57
30 30 31 32 32 33 34 36 39 40 42 44 46 47 57 58 58 58 57 57 55 53 51 50 50 50 52 55 57 57 57 57
30 30 30 31 32 32 33 34 36 39 37 38 39 41 42 47 51 49 47 46 46 46 45 43 42 41 40 43 51 56 54 49
30 29 30 31 31 32 32 33 34 35 36 37 36 37 37 37 40 41 41 41 40 39 38 38 37 37 37 39 47 47 45 44
29 30 30 30 31 32 32 32 32 33 33 35 36 36 35 34 34 36 37 37 36 35 35 35 34 35 36 37 37 39 38 39
29 30 30 30 31 30 30 32 31 30 31 32 33 34 34 34 32 32 33 34 34 33 33 33 33 33 34 35 34 35 35 35

GFSFLT1_sfc_dewp_099.txt.gz
Dewpoint
44 45 46 47 49 50 50 48 44 58 66 67 67 66 67 66 65 64 65 66 64 64 64 64 64 64 63 62 61 62 62 62
44 45 45 46 48 48 49 50 51 47 64 64 63 63 64 65 65 65 65 65 64 63 63 63 63 63 62 62 61 61 61 62
43 43 44 45 46 47 48 49 50 49 57 63 63 63 64 65 66 65 65 64 64 63 62 62 63 62 62 62 61 60 61 62
42 42 43 44 44 45 45 48 49 51 53 62 64 64 65 64 65 64 65 64 63 63 63 63 62 62 62 62 62 60 59 61
40 41 41 42 42 43 43 45 48 51 54 60 62 60 59 62 63 64 64 64 63 63 63 63 62 62 62 62 62 61 61 59
39 39 39 39 40 40 42 44 46 50 55 59 62 61 62 63 64 63 63 64 62 59 59 62 62 62 62 62 62 61 61 60
38 38 38 37 39 40 41 43 45 48 56 59 62 62 62 63 62 62 63 62 59 59 61 62 62 62 62 63 62 61 61 60
35 35 36 37 37 39 41 42 44 47 52 61 62 62 62 63 62 61 60 59 58 59 62 61 62 62 62 62 61 62 61 60
34 34 35 36 37 38 40 42 43 47 50 62 63 62 62 63 63 60 60 59 60 62 62 62 62 62 61 61 61 61 61 60
34 34 35 35 36 37 39 41 42 46 51 62 62 61 60 60 63 63 62 62 61 61 62 61 61 60 60 61 60 61 61 60
32 32 33 35 37 37 39 40 42 46 50 61 60 60 60 60 60 60 60 60 59 61 60 60 60 60 61 61 60 60 60 60
31 32 33 34 35 36 37 38 41 45 46 58 60 60 59 59 59 60 60 59 59 59 59 59 59 60 60 60 60 60 59 59
31 31 32 33 33 34 35 37 39 43 44 50 58 59 59 59 59 59 59 58 58 58 58 58 58 59 59 59 58 59 59 58
31 31 31 32 32 33 34 36 37 40 42 43 45 46 56 58 59 57 58 57 57 57 58 57 57 57 57 57 57 58 58 58
30 30 30 31 31 32 33 34 35 37 39 40 40 42 43 49 57 58 58 58 58 58 57 55 55 54 55 57 57 57 57 58
29 29 30 30 30 31 32 32 33 35 36 37 38 38 38 39 44 44 55 53 50 49 47 45 44 43 41 46 52 56 57 52
28 28 28 29 30 30 31 32 32 33 33 34 36 37 37 36 36 38 40 42 41 40 39 39 39 38 37 39 48 49 46 44
28 28 28 29 29 29 30 31 32 30 31 32 33 35 35 36 35 34 34 35 36 35 35 35 35 36 36 37 38 40 39 39
28 29 29 29 29 29 29 29 30 30 29 30 31 32 33 35 34 33 32 32 33 33 33 34 34 34 35 35 35 36 35 34

GFSFLT1_sfc_dewp_102.txt.gz
Dewpoint
43 43 45 46 47 49 50 51 54 55 52 54 61 61 67 66 65 64 66 68 67 67 66 66 66 65 65 65 64 63 63 62
41 44 45 46 47 47 48 50 52 52 51 47 56 59 64 63 64 65 66 67 67 66 66 65 65 64 64 64 63 62 62 63
41 43 45 46 46 48 48 48 49 50 51 51 51 57 59 61 63 66 66 66 67 66 65 64 64 64 64 64 63 61 62 63
41 41 43 45 45 46 46 47 48 50 52 52 51 57 59 62 64 66 66 66 66 66 65 64 64 64 64 64 63 62 60 62
40 40 41 43 44 44 44 45 46 47 50 51 53 52 56 59 61 64 65 65 65 65 64 63 63 64 64 64 63 63 62 60
39 39 39 40 42 42 41 43 44 45 47 49 53 53 59 58 60 63 64 64 64 64 64 64 64 64 64 64 64 64 63 61
38 38 38 39 41 41 40 41 41 43 45 48 52 57 57 58 59 62 63 64 64 64 64 64 64 63 63 63 63 63 63 62
37 36 37 38 39 40 39 39 40 41 44 47 52 58 57 61 60 62 62 62 63 63 64 61 62 63 63 63 62 64 63 62
35 35 36 37 38 40 39 38 39 41 44 48 52 59 59 62 62 62 62 62 62 64 62 59 59 61 62 63 63 64 63 64
35 35 36 37 38 39 38 38 38 40 44 47 52 63 62 63 63 63 62 64 62 61 60 61 61 62 63 62 63 63 62 61
34 34 35 37 38 39 38 37 38 39 43 46 51 62 62 62 63 63 61 62 61 61 61 62 62 62 62 63 62 61 61 61
33 33 34 36 37 37 36 36 37 38 41 45 48 61 61 62 62 62 61 62 62 61 61 61 60 61 62 61 60 60 60 60
32 32 33 34 35 35 34 35 35 37 39 42 46 48 55 60 60 60 61 61 61 61 61 60 60 60 60 61 60 60 60 59
32 32 32 33 34 33 32 33 34 35 37 40 41 42 45 47 58 60 60 60 60 59 59 59 59 60 59 60 60 60 60 60
30 31 32 32 32 33 31 32 34 34 35 37 38 41 41 42 46 53 59 59 58 58 59 58 58 58 59 58 58 58 58 59
29 30 30 31 31 31 31 31 32 33 34 34 36 38 39 38 39 41 45 52 57 56 53 51 51 50 44 50 56 58 58 58
28 28 29 30 29 29 30 31 33 31 31 32 34 35 37 37 37 36 37 37 40 44 44 44 41 39 37 39 46 53 50 49
28 28 29 29 30 30 30 32 32 31 29 30 31 32 34 35 36 35 34 34 34 36 38 37 37 37 37 38 40 44 42 40
28 29 29 29 29 29 29 30 30 31 29 29 30 31 31 32 34 34 33 33 32 32 33 35 35 34 35 36 36 37 37 36

GFSFLT1_sfc_dewp_105.txt.gz
Dewpoint
39 40 43 44 46 48 48 49 52 54 53 55 53 54 62 63 63 65 67 68 68 68 66 67 67 65 67 66 65 65 64 64
38 42 44 46 47 47 48 50 51 50 50 50 50 47 55 59 61 64 67 66 69 68 66 67 66 65 66 65 65 64 64 64
38 40 43 45 46 47 48 48 49 49 49 50 51 52 51 55 60 63 65 66 68 67 66 66 66 65 65 64 64 63 63 64
38 40 42 44 44 46 46 46 47 49 50 50 50 52 53 55 60 61 63 66 67 67 67 66 66 65 64 64 64 62 61 63
38 39 40 42 43 45 45 46 46 46 49 49 50 50 50 48 55 58 62 65 65 67 67 65 65 65 64 64 64 63 62 60
38 39 39 39 42 44 45 45 44 46 46 47 47 49 51 53 53 58 62 65 65 66 67 65 65 64 64 64 63 63 63 62
38 38 38 39 41 43 44 43 43 44 43 44 45 47 50 53 53 57 60 65 65 65 65 65 65 65 64 64 65 65 64 63
37 36 37 38 40 42 42 41 41 41 41 42 44 47 49 52 55 57 61 64 64 64 64 64 64 64 59 58 61 64 64 63
36 36 37 37 39 40 40 40 40 40 40 41 44 46 49 52 56 58 60 62 63 63 64 63 63 63 61 63 64 64 64 63
35 35 36 37 38 39 40 39 39 38 39 41 43 46 50 57 60 61 62 64 62 63 64 63 63 64 63 63 62 63 63 64
35 35 36 37 38 38 39 39 38 38 39 39 42 45 48 59 61 61 62 63 63 63 63 63 61 60 62 62 61 62 63 64
33 34 35 36 37 37 37 37 37 37 37 39 41 43 47 52 60 61 61 62 62 61 62 61 61 61 59 60 61 61 61 62
33 33 34 35 35 35 36 36 36 36 36 37 39 41 43 46 50 57 61 62 62 61 60 60 60 60 61 58 57 59 60 60
32 32 33 33 34 34 34 34 34 35 35 35 37 38 41 41 43 47 60 61 61 61 60 60 60 61 61 61 58 57 60 60
31 31 31 32 32 33 33 36 34 34 34 34 34 36 38 40 40 43 43 50 60 60 60 60 59 60 60 61 60 60 60 60
29 29 30 30 31 31 32 33 34 33 32 32 33 34 36 38 39 39 39 39 41 50 56 54 56 54 54 59 59 59 59 59
28 28 28 29 30 30 31 31 32 33 31 31 31 33 33 34 35 37 36 36 35 37 40 43 42 40 39 41 54 55 53 52
28 27 28 29 30 29 30 30 31 31 32 32 32 32 32 32 33 34 34 35 34 33 34 36 36 37 38 41 41 44 41 41
29 29 29 30 32 30 30 30 29 30 31 32 32 32 32 32 31 31 32 32 32 32 31 33 34 34 36 36 36 37 36 35

GFSFLT1_sfc_dewp_108.txt.gz
Dewpoint
41 41 44 45 48 50 51 52 55 56 56 58 58 57 57 56 63 65 66 68 67 67 67 67 66 65 65 67 65 66 65 64
40 45 47 47 49 49 49 50 52 51 51 51 52 52 55 55 57 62 66 67 67 66 66 66 66 65 64 66 65 64 64 64
39 42 45 47 47 48 47 47 48 49 49 51 51 52 52 54 55 57 62 64 66 66 67 66 66 65 64 65 64 63 63 64
38 39 43 46 46 47 45 46 46 48 49 48 49 50 51 52 53 53 55 62 64 66 66 66 66 65 64 65 64 62 61 63
37 39 40 43 45 46 45 46 45 45 47 46 47 47 47 49 51 53 54 63 63 65 66 66 65 64 64 64 64 62 61 61
38 38 38 40 43 44 45 44 43 44 45 45 44 44 46 48 50 52 54 55 62 64 65 65 64 64 63 64 64 62 61 60
36 37 38 38 41 43 43 42 41 42 43 42 42 42 43 45 47 49 52 55 59 62 64 66 65 64 64 63 60 63 62 62
36 36 36 38 40 41 40 40 40 41 41 40 40 41 42 43 45 48 50 54 58 59 63 65 65 64 63 63 63 63 62 62
35 35 37 37 38 39 39 39 39 40 40 39 39 40 43 44 46 48 50 53 57 61 63 64 64 64 63 63 62 61 60 60
34 34 36 37 38 39 39 38 37 38 38 39 39 41 43 44 46 49 52 54 57 61 64 63 63 63 63 60 59 59 58 61
32 33 36 36 37 37 38 37 36 37 37 37 38 39 42 44 46 49 55 57 60 61 63 63 63 63 63 60 60 61 62 62
31 33 35 35 36 36 37 37 36 35 36 36 37 38 39 42 43 45 47 51 59 61 63 63 62 62 62 62 61 61 61 60
31 32 33 33 34 33 34 35 35 34 34 35 35 36 37 39 40 42 46 46 52 60 61 62 62 61 60 61 60 59 59 57
30 30 31 31 32 33 34 34 34 34 33 34 34 34 35 37 38 39 42 43 46 54 59 61 61 60 59 59 59 59 57 57
29 29 29 30 31 31 32 34 34 34 32 32 32 33 34 35 36 37 39 40 41 42 52 59 60 60 59 58 57 56 55 56
28 28 28 29 29 30 31 32 33 33 32 32 32 32 33 33 34 34 36 37 38 38 40 42 45 47 47 54 59 57 54 55
27 27 27 28 29 30 31 31 32 32 31 32 32 32 32 32 32 32 32 33 35 35 35 36 38 39 37 42 54 58 56 54
26 27 28 28 31 32 31 31 31 32 32 31 32 33 32 32 32 30 29 30 31 32 33 33 33 34 36 39 42 44 41 40
27 29 30 31 33 32 31 29 30 31 31 31 32 32 32 33 32 31 30 28 28 28 29 31 32 32 34 35 36 36 35 34

GFSFLT1_sfc_dewp_111.txt.gz
Dewpoint
41 44 45 46 47 47 47 49 49 49 50 52 52 53 54 55 54 57 65 67 68 67 66 66 66 65 64 65 65 65 65 64
44 44 44 45 45 45 46 47 47 48 48 48 48 50 50 51 52 53 54 64 67 67 66 66 66 66 64 65 65 64 62 64
42 43 43 44 45 45 45 45 45 45 47 47 48 49 50 51 52 52 53 54 58 66 66 66 66 66 65 64 64 63 62 63
40 40 42 43 43 44 44 44 43 44 44 45 45 45 46 48 49 49 50 52 54 58 65 66 66 66 65 64 63 63 61 61
38 38 39 41 42 43 42 42 41 41 43 42 42 42 42 43 45 47 48 49 52 55 58 63 65 65 64 62 59 59 57 59
36 37 38 39 41 41 41 41 41 41 41 41 40 39 41 42 43 44 46 48 50 53 56 61 62 64 63 59 57 59 61 61
36 37 37 38 39 40 39 39 39 39 39 39 39 38 39 40 41 42 44 46 49 51 55 59 62 62 63 62 60 60 61 60
36 36 36 37 38 38 37 37 36 37 38 38 38 38 38 39 41 43 44 46 48 50 54 57 60 61 61 62 62 62 61 61
35 35 36 36 36 37 36 36 35 36 37 37 37 38 39 39 42 43 44 46 48 50 52 56 58 61 62 62 62 60 59 61
34 35 35 35 35 36 36 36 34 34 36 36 36 37 39 39 40 42 45 47 49 53 52 54 53 56 58 61 60 60 58 56
33 34 34 34 34 35 35 34 35 34 34 35 36 36 37 38 39 41 42 45 47 50 55 55 57 54 57 60 60 60 59 59
31 32 32 33 32 33 34 34 34 34 33 34 35 35 36 37 38 39 40 42 45 48 50 59 59 59 59 59 60 59 59 58
30 30 30 31 31 31 32 33 34 34 33 33 34 34 35 35 36 37 39 39 42 44 49 56 59 58 58 60 59 59 58 59
29 29 29 30 30 31 32 32 33 33 33 33 33 33 33 33 34 34 36 37 38 40 43 45 52 59 59 61 60 60 60 60
28 27 28 29 29 30 31 32 32 32 32 32 32 33 33 32 32 32 33 34 35 36 38 40 42 44 46 50 60 59 57 57
27 26 27 28 29 30 30 31 31 31 31 32 32 33 33 32 31 30 30 31 31 33 35 36 36 38 36 39 46 57 55 55
25 26 26 28 28 30 30 31 31 31 31 32 33 32 32 32 31 30 29 29 29 30 31 32 33 34 36 36 40 56 55 52
26 28 28 29 30 32 30 32 32 31 31 32 32 32 33 32 32 30 29 29 28 28 28 30 30 32 35 34 35 40 43 43
27 28 30 30 32 32 32 32 31 31 30 30 32 30 30 32 32 32 32 30 29 28 28 28 29 31 34 34 33 32 32 32

GFSFLT1_sfc_dewp_114.txt.gz
Dewpoint
45 46 45 45 45 46 46 46 46 47 47 48 49 50 50 52 52 53 54 56 60 65 66 66 66 65 65 66 66 65 64 64
44 44 44 44 44 44 44 44 45 44 45 45 46 46 46 48 49 51 52 55 56 55 63 66 65 65 64 64 64 63 63 64
43 43 43 43 43 42 42 42 42 42 43 45 45 44 47 46 48 48 49 50 52 53 55 60 65 65 64 63 64 63 64 64
41 41 42 41 41 41 41 41 41 41 42 42 41 42 43 44 43 44 46 47 48 50 52 54 56 64 65 64 63 62 60 61
39 39 40 39 39 40 40 40 39 40 40 40 39 39 39 40 41 42 43 45 47 49 51 53 55 58 62 64 63 62 59 56
37 38 38 38 38 38 37 37 37 37 38 39 39 38 38 39 40 41 42 44 46 48 49 50 52 54 58 63 61 57 57 55
36 37 37 37 37 36 36 35 34 36 37 37 37 37 37 38 39 40 42 44 45 47 48 50 52 55 58 61 62 60 57 56
35 35 35 36 36 35 35 35 34 34 35 35 36 36 37 38 38 40 40 42 44 46 48 50 51 52 55 60 60 59 58 58
34 34 34 34 34 33 33 34 34 34 34 34 35 36 37 37 37 38 39 42 43 45 47 49 50 52 54 57 61 60 59 59
34 34 33 33 33 34 33 34 34 34 34 34 35 36 36 37 37 38 39 40 41 43 44 47 49 53 53 55 60 59 60 60
33 33 32 32 32 33 33 34 33 34 33 33 34 34 35 36 37 37 37 39 40 41 42 45 48 52 54 54 56 59 59 59
30 31 32 31 31 32 32 32 32 32 32 33 33 33 34 35 35 35 36 37 38 39 40 43 47 49 56 55 54 57 59 59
28 29 29 30 30 31 31 31 31 32 32 32 32 32 32 32 33 33 34 34 36 37 38 40 43 44 48 58 56 57 58 58
28 28 28 28 30 30 31 30 31 32 32 31 32 32 31 31 31 31 31 32 32 33 36 37 38 39 40 46 57 57 58 57
26 26 26 28 29 29 30 30 31 31 31 32 32 31 32 31 31 30 30 30 30 30 32 34 35 36 37 38 43 52 57 58
25 25 25 27 28 28 29 29 31 30 30 31 31 32 32 32 32 32 30 30 29 30 30 31 32 34 35 36 42 48 51 56
25 25 25 26 26 27 27 28 29 29 28 30 30 30 30 32 32 31 30 29 29 29 29 30 30 31 35 35 37 37 36 42
26 27 27 28 30 31 30 29 29 28 29 29 29 29 29 30 31 30 30 29 27 28 28 30 30 30 33 34 34 33 32 32
27 28 30 31 32 32 31 30 30 27 27 27 28 27 28 28 28 29 28 29 28 27 27 28 30 31 32 31 32 33 31 30

GFSFLT1_sfc_dewp_117.txt.gz
Dewpoint
45 45 45 45 45 45 45 44 45 45 46 47 47 46 46 49 49 50 52 54 55 56 58 62 66 65 65 66 65 66 65 65
43 43 43 43 42 41 42 42 42 43 43 43 45 43 45 45 47 46 47 50 50 50 52 54 57 63 64 63 64 63 64 65
42 42 41 40 40 40 40 41 41 41 41 42 42 42 44 43 44 43 46 45 47 48 50 51 54 55 58 64 64 62 62 63
40 39 39 39 38 39 38 39 38 39 40 40 40 41 40 41 40 41 42 44 45 47 48 50 51 53 53 57 63 63 62 61
38 38 38 39 36 36 35 36 36 38 38 38 38 38 38 39 39 40 41 43 45 47 48 48 49 51 53 55 59 63 63 58
38 38 37 36 37 36 35 34 34 36 36 37 37 37 38 38 39 39 41 43 44 46 48 47 48 49 50 53 54 58 63 61
37 38 38 36 34 34 35 34 33 34 35 35 36 36 36 37 37 38 39 40 42 45 46 47 49 50 51 52 54 57 61 60
36 34 34 34 34 33 33 34 33 33 34 34 35 35 36 36 36 37 38 39 41 43 44 45 46 49 50 52 52 54 59 60
35 35 33 32 32 32 33 33 33 34 33 34 34 34 35 36 36 36 37 38 39 41 42 43 44 46 48 50 53 53 56 60
34 34 34 32 32 32 32 32 32 33 33 34 34 34 35 35 35 36 36 36 37 39 40 41 42 44 47 50 53 53 54 59
34 34 33 33 33 32 32 32 32 32 33 33 33 34 34 34 34 34 34 34 36 37 37 39 41 42 45 47 50 54 54 58
31 31 31 32 33 33 31 31 31 31 32 32 33 34 33 32 32 32 32 33 34 34 35 37 38 38 41 42 44 54 54 55
31 31 29 29 30 30 29 30 30 31 32 32 33 33 32 32 31 31 32 31 32 32 33 34 35 36 38 38 40 43 54 55
26 26 27 28 28 29 29 29 29 31 31 31 32 32 31 31 30 30 31 31 31 31 32 32 33 35 35 36 37 40 45 56
25 25 26 27 28 27 28 29 29 30 31 31 30 31 31 31 31 30 29 29 29 29 30 31 32 33 33 34 35 41 46 51
25 25 26 27 28 28 28 29 30 30 29 30 30 30 29 30 29 29 28 28 28 28 29 30 31 31 31 33 34 36 38 39
25 25 26 27 28 29 29 30 30 30 29 29 28 28 27 28 29 27 28 27 26 27 27 28 29 31 33 32 33 33 33 34
24 25 27 28 30 31 30 31 27 26 26 26 25 25 25 25 25 26 25 26 26 25 25 26 28 31 33 33 31 31 31 31
24 27 25 28 29 32 31 32 29 26 25 26 25 23 22 22 22 22 23 23 23 23 24 25 26 29 33 33 31 30 29 29

GFSFLT1_sfc_dewp_120.txt.gz
Dewpoint
43 42 41 41 41 41 42 42 42 44 45 46 45 45 46 46 47 46 49 50 50 51 53 54 56 60 64 65 64 65 64 65
40 39 39 39 40 39 40 40 40 41 42 43 43 41 44 44 43 44 46 46 48 48 49 50 53 54 55 59 64 62 61 63
38 37 37 36 36 36 36 37 38 38 39 41 41 41 43 43 41 43 43 44 46 46 47 48 50 51 52 53 58 63 62 63
37 36 37 37 36 35 34 35 35 37 38 39 39 40 40 40 40 40 41 43 45 46 47 48 48 49 50 52 54 56 61 62
36 36 35 35 36 37 37 36 35 35 36 37 37 38 37 39 39 40 40 42 43 45 47 48 49 50 50 50 53 53 57 60
37 38 36 35 35 36 36 37 37 34 34 35 36 36 37 38 38 38 39 40 42 43 46 46 47 48 50 50 51 51 53 55
37 36 37 36 35 35 36 34 34 35 34 34 35 35 35 36 36 37 37 39 40 42 42 44 44 46 47 49 52 52 52 53
35 35 34 35 35 35 35 34 33 34 34 34 34 34 34 35 35 36 36 37 38 39 40 41 42 44 45 47 48 50 52 53
34 34 34 34 34 33 32 32 33 34 34 34 34 34 34 34 34 34 35 35 35 37 38 39 41 42 43 45 47 49 52 53
33 34 33 34 34 33 32 32 32 32 33 34 33 33 34 33 33 33 33 33 34 35 36 37 39 40 41 43 45 47 49 53
32 32 32 33 33 33 32 32 32 32 33 33 33 33 33 33 33 32 32 32 33 34 34 35 36 37 38 40 41 43 45 48
30 31 31 32 32 32 31 31 31 32 32 32 33 32 33 32 32 32 32 32 32 32 33 34 34 35 36 37 38 39 40 43
28 28 28 29 29 30 30 31 31 31 31 31 32 32 32 31 30 30 30 30 31 31 32 32 33 33 34 34 35 37 39 41
25 26 26 27 28 29 29 30 30 31 31 30 30 30 30 30 30 28 28 29 29 30 30 31 32 33 32 33 35 36 37 40
24 25 27 27 28 28 28 30 30 30 30 29 29 29 29 29 29 29 28 28 27 27 29 30 32 32 32 32 33 33 34 35
24 24 26 27 26 28 28 28 28 28 27 26 26 27 27 27 27 26 26 26 26 26 27 28 31 31 32 31 30 31 31 32
23 25 26 27 28 28 28 28 26 26 26 25 24 24 23 24 24 24 23 23 24 25 26 26 28 30 33 32 30 29 29 29
25 26 27 28 30 30 29 29 28 26 26 25 24 24 23 22 22 21 22 22 23 24 25 25 26 28 31 30 30 29 28 28
26 26 27 28 29 30 30 29 28 25 25 25 24 23 22 21 21 20 20 20 21 23 23 23 24 27 29 28 28 28 27 28

GFSFLT1_sfc_dewp_126.txt.gz
Dewpoint
39 39 40 39 40 40 39 40 42 43 43 46 48 48 48 47 48 49 51 52 53 53 53 55 57 57 59 62 63 65 66 66
37 38 38 39 40 40 39 39 39 39 41 41 43 44 47 46 45 48 48 50 52 52 51 52 53 53 55 58 58 61 63 66
37 37 37 38 38 39 38 38 39 38 38 39 41 43 44 45 44 46 46 47 49 48 50 49 50 51 53 55 56 55 57 63
37 36 37 38 38 39 38 38 38 39 40 39 39 41 41 41 41 42 44 45 46 45 47 47 48 49 50 50 51 53 53 55
36 37 37 38 38 38 39 38 38 38 40 39 41 39 38 39 40 41 41 43 43 43 44 45 46 47 48 49 50 52 52 52
37 37 36 36 36 36 37 38 37 38 39 39 39 39 38 38 38 40 40 40 41 41 42 42 43 44 45 46 47 48 50 52
36 36 36 36 37 37 37 37 36 37 36 37 38 38 37 37 37 36 36 37 38 39 39 40 41 42 43 44 45 46 48 49
35 35 35 36 36 36 36 36 35 36 36 35 36 35 36 36 36 35 35 34 35 36 37 38 39 40 41 42 43 45 46 48
36 35 35 34 34 34 34 34 34 35 35 35 35 34 34 34 34 34 35 35 34 35 36 37 38 39 39 40 41 43 45 46
35 35 33 33 33 33 33 33 32 33 34 34 34 34 34 33 33 33 33 34 33 34 35 35 36 37 37 38 39 40 41 43
34 33 32 32 32 32 33 32 32 32 33 33 32 32 32 33 32 32 32 32 32 33 33 34 34 35 35 36 37 39 39 41
33 32 31 31 31 32 32 32 32 33 33 32 32 32 32 32 32 31 31 32 32 32 32 33 32 33 34 34 34 35 35 36
29 28 28 29 29 30 30 31 32 32 32 32 32 31 31 31 31 30 31 31 31 30 31 31 32 32 32 32 32 32 32 33
28 27 28 28 28 29 29 30 30 30 30 30 30 30 30 29 29 30 30 30 30 29 30 30 30 31 31 32 32 32 32 32
27 26 27 27 28 28 28 30 30 29 28 28 28 28 28 27 27 27 28 28 27 27 28 29 29 29 29 30 31 31 31 31
27 26 26 26 27 27 28 29 28 28 27 27 27 26 25 26 26 26 26 27 26 25 26 27 27 26 26 29 30 30 30 29
26 25 26 26 26 26 27 27 25 25 24 24 24 25 24 25 25 26 26 25 25 25 25 26 25 20 25 27 28 29 28 27
26 26 26 27 27 27 28 26 24 23 23 23 24 25 25 25 24 24 25 26 25 25 25 25 25 24 24 25 26 28 27 27
27 28 27 28 28 29 27 25 24 23 23 23 23 23 25 25 25 25 26 28 26 26 25 25 25 25 22 23 24 29 30 28

GFSFLT1_sfc_dewp_129.txt.gz
Dewpoint
39 40 41 41 42 42 42 43 44 44 45 47 47 48 51 50 49 51 51 52 53 53 53 55 55 55 56 59 62 63 64 64
39 40 40 40 41 41 40 42 43 42 40 41 44 44 47 48 48 49 49 50 51 51 50 51 52 51 53 55 56 57 56 62
38 39 40 41 41 41 40 40 41 42 41 42 42 44 44 44 45 46 47 47 48 46 47 47 48 49 50 52 52 52 53 55
37 38 40 41 40 41 40 40 40 42 43 41 42 42 42 41 42 43 44 45 46 46 45 45 46 47 47 49 50 50 50 52
37 38 38 38 39 40 40 40 39 40 42 41 42 40 40 41 41 41 42 44 44 44 44 44 44 44 45 46 47 48 49 49
37 37 37 37 39 39 40 39 39 39 39 40 38 39 38 39 40 41 41 42 42 42 42 42 42 42 43 44 45 45 47 47
37 37 37 37 38 38 39 38 37 38 38 38 38 38 37 36 36 37 38 38 39 40 39 40 40 41 41 42 43 44 45 47
37 36 36 36 36 37 36 36 35 37 37 37 37 36 37 36 35 35 35 37 36 37 38 38 38 39 39 40 41 42 44 45
37 36 35 34 34 35 35 35 34 35 35 35 35 35 34 34 34 34 34 34 35 36 37 37 37 37 38 38 39 41 42 43
37 36 35 33 33 34 35 34 33 34 34 35 34 33 34 33 33 34 33 34 33 34 35 35 35 36 37 37 38 38 38 39
36 35 33 33 33 33 34 34 33 33 34 33 33 33 33 33 33 32 33 33 33 33 33 34 34 35 35 35 35 35 35 36
36 34 31 32 32 32 33 33 33 33 33 33 33 33 33 32 32 32 32 33 32 32 32 33 33 33 34 34 33 33 33 33
34 31 30 30 31 31 31 32 32 32 32 32 33 33 32 32 31 31 33 33 32 31 32 32 32 31 32 33 33 32 32 32
32 30 29 29 30 30 30 31 31 31 31 31 31 31 29 29 29 29 29 29 29 29 29 29 29 29 30 32 32 32 32 32
31 30 29 28 29 29 30 31 31 30 30 30 29 28 27 27 27 28 28 27 26 26 28 27 27 26 27 30 30 30 30 30
31 29 28 28 28 29 29 29 30 29 29 29 28 27 27 27 28 27 27 27 26 25 26 25 24 22 23 27 28 28 28 28
30 28 27 27 27 28 28 28 27 26 25 25 26 26 25 26 26 26 26 25 24 25 25 24 22 17 24 26 27 26 26 25
29 28 28 28 28 28 28 27 25 23 23 23 24 26 25 26 25 25 25 25 24 25 24 24 22 20 22 25 27 27 26 25
31 31 29 29 29 28 28 26 25 23 23 23 23 24 24 25 25 26 27 28 27 26 24 24 24 22 21 22 26 28 29 27